Time,TemperatureF,DewpointF,PressureIn,WindDirection,WindDirectionDegrees,WindSpeedMPH,WindSpeedGustMPH,Humidity,HourlyPrecipIn,Conditions,Clouds,dailyrainin,SoftwareType,DateUTC
2013-06-23 00:00:00,67.3,64.6,29.94,South,188,0.0,1.0,91,0.00,,,0.74,VWS V14.01,2013-06-23 05:00:00,
2013-06-23 00:02:00,67.3,64.9,29.94,South,188,0.0,0.0,92,0.00,,CLR,0.00,VWS V14.01,2013-06-23 05:02:00,
2013-06-23 00:03:00,67.3,64.9,29.94,South,188,0.0,0.0,92,0.00,,CLR,0.00,VWS V14.01,2013-06-23 05:03:00,
2013-06-23 00:07:00,67.3,64.9,29.94,South,186,0.0,0.0,92,0.00,,CLR,0.00,VWS V14.01,2013-06-23 05:07:00,
2013-06-23 00:08:00,67.3,64.9,29.94,South,186,0.0,0.0,92,0.00,,CLR,0.00,VWS V14.01,2013-06-23 05:08:00,
2013-06-23 00:12:00,67.3,64.9,29.94,South,181,0.0,0.0,92,0.00,,CLR,0.00,VWS V14.01,2013-06-23 05:12:00,
2013-06-23 00:13:00,67.3,64.9,29.94,South,181,0.0,0.0,92,0.00,,CLR,0.00,VWS V14.01,2013-06-23 05:13:00,
2013-06-23 00:14:00,67.3,64.9,29.94,South,181,0.0,0.0,92,0.00,,CLR,0.00,VWS V14.01,2013-06-23 05:14:00,
2013-06-23 00:17:00,67.3,64.9,29.95,ESE,110,0.0,0.0,92,0.00,,CLR,0.00,VWS V14.01,2013-06-23 05:17:00,
2013-06-23 00:18:00,67.3,64.9,29.95,ESE,110,0.0,0.0,92,0.00,,CLR,0.00,VWS V14.01,2013-06-23 05:18:00,
2013-06-23 00:19:00,67.3,64.9,29.95,ESE,109,0.0,0.0,92,0.00,,CLR,0.00,VWS V14.01,2013-06-23 05:19:00,
2013-06-23 00:23:00,67.3,64.9,29.95,ESE,110,0.0,0.0,92,0.00,,CLR,0.00,VWS V14.01,2013-06-23 05:23:00,
2013-06-23 00:24:00,67.3,64.9,29.95,ESE,110,0.0,0.0,92,0.00,,CLR,0.00,VWS V14.01,2013-06-23 05:24:00,
2013-06-23 00:28:00,67.3,64.9,29.95,SE,132,0.0,0.0,92,0.00,,CLR,0.00,VWS V14.01,2013-06-23 05:28:00,
2013-06-23 00:29:00,67.3,64.9,29.95,SE,132,0.0,0.0,92,0.00,,CLR,0.00,VWS V14.01,2013-06-23 05:29:00,
2013-06-23 00:30:00,67.3,64.9,29.96,SE,138,0.0,0.0,92,0.00,,,0.00,VWS V14.01,2013-06-23 05:30:00,
2013-06-23 00:33:00,67.3,64.9,29.96,SW,217,0.0,1.0,92,0.00,,CLR,0.00,VWS V14.01,2013-06-23 05:33:00,
2013-06-23 00:34:00,67.3,64.9,29.96,SW,217,0.0,1.0,92,0.00,,CLR,0.00,VWS V14.01,2013-06-23 05:34:00,
2013-06-23 00:38:00,67.3,64.9,29.96,South,173,0.0,1.0,92,0.00,,CLR,0.00,VWS V14.01,2013-06-23 05:38:00,
2013-06-23 00:39:00,67.3,64.9,29.96,South,171,0.0,1.0,92,0.00,,CLR,0.00,VWS V14.01,2013-06-23 05:39:00,
2013-06-23 00:43:00,67.5,65.1,29.96,East,99,0.0,1.0,92,0.00,,CLR,0.00,VWS V14.01,2013-06-23 05:43:00,
2013-06-23 00:44:00,67.3,64.9,29.96,East,99,0.0,1.0,92,0.00,,CLR,0.00,VWS V14.01,2013-06-23 05:44:00,
2013-06-23 00:48:00,67.3,64.9,29.96,SE,130,0.0,1.0,92,0.00,,CLR,0.00,VWS V14.01,2013-06-23 05:48:00,
2013-06-23 00:49:00,67.3,64.9,29.96,SE,130,0.0,1.0,92,0.00,,CLR,0.00,VWS V14.01,2013-06-23 05:49:00,
2013-06-23 00:54:00,67.3,64.9,29.96,ESE,123,0.0,1.0,92,0.00,,CLR,0.00,VWS V14.01,2013-06-23 05:54:00,
2013-06-23 00:59:00,67.3,64.9,29.96,SE,133,0.0,1.0,92,0.00,,CLR,0.00,VWS V14.01,2013-06-23 05:59:00,
2013-06-23 01:00:00,67.3,64.9,29.95,SE,135,0.0,1.0,92,0.00,,,0.00,VWS V14.01,2013-06-23 06:00:00,
2013-06-23 01:01:00,67.3,64.9,29.95,SE,135,0.0,0.0,92,0.00,,CLR,0.00,VWS V14.01,2013-06-23 06:01:00,
2013-06-23 01:04:00,67.3,64.9,29.95,SE,144,0.0,0.0,92,0.00,,CLR,0.00,VWS V14.01,2013-06-23 06:04:00,
2013-06-23 01:06:00,67.3,64.9,29.95,SE,142,0.0,0.0,92,0.00,,CLR,0.00,VWS V14.01,2013-06-23 06:06:00,
2013-06-23 01:09:00,67.3,64.9,29.95,SE,142,0.0,0.0,92,0.00,,CLR,0.00,VWS V14.01,2013-06-23 06:09:00,
2013-06-23 01:10:00,67.3,64.9,29.95,SE,142,0.0,0.0,92,0.00,,CLR,0.00,VWS V14.01,2013-06-23 06:10:00,
2013-06-23 01:11:00,67.3,64.9,29.95,SE,142,0.0,0.0,92,0.00,,CLR,0.00,VWS V14.01,2013-06-23 06:11:00,
2013-06-23 01:14:00,67.3,64.9,29.95,SE,142,0.0,0.0,92,0.00,,CLR,0.00,VWS V14.01,2013-06-23 06:14:00,
2013-06-23 01:15:00,67.3,64.9,29.95,SE,142,0.0,0.0,92,0.00,,CLR,0.00,VWS V14.01,2013-06-23 06:15:00,
2013-06-23 01:16:00,67.3,64.9,29.95,SE,142,0.0,0.0,92,0.00,,CLR,0.00,VWS V14.01,2013-06-23 06:16:00,
2013-06-23 01:19:00,67.2,64.8,29.95,SE,142,0.0,0.0,92,0.00,,CLR,0.00,VWS V14.01,2013-06-23 06:19:00,
2013-06-23 01:20:00,67.2,64.8,29.95,SE,142,0.0,0.0,92,0.00,,CLR,0.00,VWS V14.01,2013-06-23 06:20:00,
2013-06-23 01:21:00,67.2,64.8,29.95,SE,142,0.0,0.0,92,0.00,,CLR,0.00,VWS V14.01,2013-06-23 06:21:00,
2013-06-23 01:24:00,67.3,64.9,29.95,SE,142,0.0,0.0,92,0.00,,CLR,0.00,VWS V14.01,2013-06-23 06:24:00,
2013-06-23 01:25:00,67.3,64.9,29.95,SE,142,0.0,0.0,92,0.00,,CLR,0.00,VWS V14.01,2013-06-23 06:25:00,
2013-06-23 01:27:00,67.3,64.9,29.95,SE,142,0.0,0.0,92,0.00,,CLR,0.00,VWS V14.01,2013-06-23 06:27:00,
2013-06-23 01:30:00,67.3,64.9,29.95,SE,142,0.0,0.0,92,0.00,,CLR,0.00,VWS V14.01,2013-06-23 06:30:00,
2013-06-23 01:32:00,67.3,64.9,29.95,SE,142,0.0,0.0,92,0.00,,CLR,0.00,VWS V14.01,2013-06-23 06:32:00,
2013-06-23 01:35:00,67.3,65.2,29.95,SE,142,0.0,0.0,93,0.00,,CLR,0.00,VWS V14.01,2013-06-23 06:35:00,
2013-06-23 01:37:00,67.3,65.2,29.95,SE,142,0.0,0.0,93,0.00,,CLR,0.00,VWS V14.01,2013-06-23 06:37:00,
2013-06-23 01:40:00,67.3,65.2,29.95,SE,142,0.0,0.0,93,0.00,,CLR,0.00,VWS V14.01,2013-06-23 06:40:00,
2013-06-23 01:42:00,67.3,65.2,29.95,SE,140,0.0,0.0,93,0.00,,CLR,0.00,VWS V14.01,2013-06-23 06:42:00,
2013-06-23 01:45:00,67.5,65.4,29.95,SE,140,0.0,0.0,93,0.00,,CLR,0.00,VWS V14.01,2013-06-23 06:45:00,
2013-06-23 01:48:00,67.5,65.4,29.95,SE,140,0.0,0.0,93,0.00,,CLR,0.00,VWS V14.01,2013-06-23 06:48:00,
2013-06-23 01:50:00,67.5,65.4,29.95,SE,140,0.0,0.0,93,0.00,,CLR,0.00,VWS V14.01,2013-06-23 06:50:00,
2013-06-23 01:51:00,67.5,65.4,29.95,SE,140,0.0,0.0,93,0.00,,CLR,0.00,VWS V14.01,2013-06-23 06:51:00,
2013-06-23 01:52:00,67.5,65.4,29.95,SE,140,0.0,0.0,93,0.00,,CLR,0.00,VWS V14.01,2013-06-23 06:52:00,
2013-06-23 01:55:00,67.5,65.4,29.95,SE,140,0.0,0.0,93,0.00,,CLR,0.00,VWS V14.01,2013-06-23 06:55:00,
2013-06-23 01:56:00,67.5,65.4,29.95,SE,140,0.0,0.0,93,0.00,,CLR,0.00,VWS V14.01,2013-06-23 06:56:00,
2013-06-23 01:58:00,67.5,65.4,29.95,SE,139,0.0,0.0,93,0.00,,CLR,0.00,VWS V14.01,2013-06-23 06:58:00,
2013-06-23 02:00:00,67.7,65.6,29.94,SE,134,0.0,0.0,93,0.00,,CLR,0.00,VWS V14.01,2013-06-23 07:00:00,
2013-06-23 02:01:00,67.7,65.6,29.94,SE,134,0.0,0.0,93,0.00,,CLR,0.00,VWS V14.01,2013-06-23 07:01:00,
2013-06-23 02:03:00,67.7,65.6,29.94,SE,133,0.0,1.0,93,0.00,,CLR,0.00,VWS V14.01,2013-06-23 07:03:00,
2013-06-23 02:05:00,67.8,65.7,29.94,SE,133,0.0,1.0,93,0.00,,CLR,0.00,VWS V14.01,2013-06-23 07:05:00,
2013-06-23 02:06:00,67.8,65.7,29.94,SE,133,0.0,1.0,93,0.00,,CLR,0.00,VWS V14.01,2013-06-23 07:06:00,
2013-06-23 02:08:00,67.8,65.7,29.94,SE,133,0.0,1.0,93,0.00,,CLR,0.00,VWS V14.01,2013-06-23 07:08:00,
2013-06-23 02:11:00,67.8,65.7,29.94,SE,133,0.0,1.0,93,0.00,,CLR,0.00,VWS V14.01,2013-06-23 07:11:00,
2013-06-23 02:14:00,67.8,65.7,29.94,SE,133,0.0,1.0,93,0.00,,CLR,0.00,VWS V14.01,2013-06-23 07:14:00,
2013-06-23 02:16:00,67.8,65.7,29.95,SE,132,0.0,1.0,93,0.00,,CLR,0.00,VWS V14.01,2013-06-23 07:16:00,
2013-06-23 02:17:00,67.8,65.7,29.95,SE,132,0.0,1.0,93,0.00,,CLR,0.00,VWS V14.01,2013-06-23 07:17:00,
2013-06-23 02:19:00,67.8,65.7,29.95,SE,131,0.0,1.0,93,0.00,,CLR,0.00,VWS V14.01,2013-06-23 07:19:00,
2013-06-23 02:21:00,67.8,65.7,29.95,SE,132,0.0,1.0,93,0.00,,CLR,0.00,VWS V14.01,2013-06-23 07:21:00,
2013-06-23 02:22:00,67.8,65.7,29.95,SE,132,0.0,1.0,93,0.00,,CLR,0.00,VWS V14.01,2013-06-23 07:22:00,
2013-06-23 02:24:00,67.8,65.7,29.95,SE,131,0.0,1.0,93,0.00,,CLR,0.00,VWS V14.01,2013-06-23 07:24:00,
2013-06-23 02:26:00,67.8,65.7,29.95,SE,131,0.0,1.0,93,0.00,,CLR,0.00,VWS V14.01,2013-06-23 07:26:00,
2013-06-23 02:27:00,67.8,65.7,29.95,SE,131,0.0,1.0,93,0.00,,CLR,0.00,VWS V14.01,2013-06-23 07:27:00,
2013-06-23 02:29:00,67.8,65.7,29.95,SE,129,0.0,1.0,93,0.00,,CLR,0.00,VWS V14.01,2013-06-23 07:29:00,
2013-06-23 02:30:00,67.8,65.7,29.95,SE,128,0.0,1.0,93,0.00,,,0.00,VWS V14.01,2013-06-23 07:30:00,
2013-06-23 02:31:00,67.8,65.7,29.95,SE,128,0.0,0.0,93,0.00,,CLR,0.00,VWS V14.01,2013-06-23 07:31:00,
2013-06-23 02:32:00,67.8,65.7,29.95,SE,129,0.0,1.0,93,0.00,,CLR,0.00,VWS V14.01,2013-06-23 07:32:00,
2013-06-23 02:33:00,67.8,65.7,29.95,SE,129,0.0,1.0,93,0.00,,CLR,0.00,VWS V14.01,2013-06-23 07:33:00,
2013-06-23 02:34:00,67.8,65.7,29.95,ESE,121,0.0,1.0,93,0.00,,CLR,0.00,VWS V14.01,2013-06-23 07:34:00,
2013-06-23 02:36:00,67.8,65.7,29.95,ESE,121,0.0,1.0,93,0.00,,CLR,0.00,VWS V14.01,2013-06-23 07:36:00,
2013-06-23 02:37:00,67.8,65.7,29.95,ESE,121,0.0,1.0,93,0.00,,CLR,0.00,VWS V14.01,2013-06-23 07:37:00,
2013-06-23 02:38:00,67.8,65.7,29.95,ESE,123,0.0,1.0,93,0.00,,CLR,0.00,VWS V14.01,2013-06-23 07:38:00,
2013-06-23 02:39:00,67.8,65.7,29.95,ESE,123,0.0,1.0,93,0.00,,CLR,0.00,VWS V14.01,2013-06-23 07:39:00,
2013-06-23 02:41:00,67.8,65.7,29.95,SSE,158,0.0,1.0,93,0.00,,CLR,0.00,VWS V14.01,2013-06-23 07:41:00,
2013-06-23 02:42:00,67.8,65.7,29.95,SE,143,0.0,1.0,93,0.00,,CLR,0.00,VWS V14.01,2013-06-23 07:42:00,
2013-06-23 02:43:00,67.8,65.7,29.95,SE,142,0.0,1.0,93,0.00,,CLR,0.00,VWS V14.01,2013-06-23 07:43:00,
2013-06-23 02:44:00,67.7,65.6,29.95,SE,143,0.0,1.0,93,0.00,,CLR,0.00,VWS V14.01,2013-06-23 07:44:00,
2013-06-23 02:46:00,67.7,65.6,29.95,SE,134,0.0,4.0,93,0.00,,CLR,0.00,VWS V14.01,2013-06-23 07:46:00,
2013-06-23 02:47:00,67.7,65.6,29.95,SE,134,0.0,4.0,93,0.00,,CLR,0.00,VWS V14.01,2013-06-23 07:47:00,
2013-06-23 02:48:00,67.7,65.6,29.95,ESE,115,0.0,4.0,93,0.00,,CLR,0.00,VWS V14.01,2013-06-23 07:48:00,
2013-06-23 02:49:00,67.7,65.6,29.95,ESE,115,0.0,4.0,93,0.00,,CLR,0.00,VWS V14.01,2013-06-23 07:49:00,
2013-06-23 02:51:00,67.7,65.6,29.95,SSW,209,0.0,4.0,93,0.00,,CLR,0.00,VWS V14.01,2013-06-23 07:51:00,
2013-06-23 02:52:00,67.7,65.6,29.95,SSW,209,0.0,4.0,93,0.00,,CLR,0.00,VWS V14.01,2013-06-23 07:52:00,
2013-06-23 02:53:00,67.7,65.6,29.95,ESE,115,0.0,4.0,93,0.00,,CLR,0.00,VWS V14.01,2013-06-23 07:53:00,
2013-06-23 02:54:00,67.7,65.6,29.95,ESE,117,0.0,4.0,93,0.00,,CLR,0.00,VWS V14.01,2013-06-23 07:54:00,
2013-06-23 02:56:00,67.7,65.6,29.95,South,169,0.0,4.0,93,0.00,,CLR,0.00,VWS V14.01,2013-06-23 07:56:00,
2013-06-23 02:57:00,67.7,65.6,29.95,South,169,0.0,4.0,93,0.00,,CLR,0.00,VWS V14.01,2013-06-23 07:57:00,
2013-06-23 02:58:00,67.7,65.6,29.95,SSE,154,0.0,4.0,93,0.00,,CLR,0.00,VWS V14.01,2013-06-23 07:58:00,
2013-06-23 02:59:00,67.7,65.6,29.95,ESE,123,0.0,4.0,93,0.00,,CLR,0.00,VWS V14.01,2013-06-23 07:59:00,
2013-06-23 03:00:00,67.7,65.6,29.96,ESE,115,2.0,4.0,93,0.00,,,0.00,VWS V14.01,2013-06-23 08:00:00,
2013-06-23 03:01:00,67.7,65.6,29.96,South,190,0.0,3.0,93,0.00,,CLR,0.00,VWS V14.01,2013-06-23 08:01:00,
2013-06-23 03:02:00,67.7,65.6,29.96,SE,140,0.0,3.0,93,0.00,,CLR,0.00,VWS V14.01,2013-06-23 08:02:00,
2013-06-23 03:04:00,67.7,65.6,29.96,ESE,109,0.0,3.0,93,0.00,,CLR,0.00,VWS V14.01,2013-06-23 08:04:00,
2013-06-23 03:05:00,67.7,65.6,29.96,East,88,0.0,3.0,93,0.00,,CLR,0.00,VWS V14.01,2013-06-23 08:05:00,
2013-06-23 03:06:00,67.7,65.6,29.96,ESE,118,0.0,3.0,93,0.00,,CLR,0.00,VWS V14.01,2013-06-23 08:06:00,
2013-06-23 03:08:00,67.7,65.6,29.96,ESE,105,0.0,3.0,93,0.00,,CLR,0.00,VWS V14.01,2013-06-23 08:08:00,
2013-06-23 03:09:00,67.7,65.6,29.96,ESE,117,0.0,3.0,93,0.00,,CLR,0.00,VWS V14.01,2013-06-23 08:09:00,
2013-06-23 03:10:00,67.7,65.6,29.96,SE,132,0.0,4.0,93,0.00,,CLR,0.00,VWS V14.01,2013-06-23 08:10:00,
2013-06-23 03:12:00,67.5,65.4,29.96,SE,126,0.0,4.0,93,0.00,,CLR,0.00,VWS V14.01,2013-06-23 08:12:00,
2013-06-23 03:13:00,67.5,65.4,29.96,SE,126,0.0,4.0,93,0.00,,CLR,0.00,VWS V14.01,2013-06-23 08:13:00,
2013-06-23 03:14:00,67.5,65.4,29.96,ESE,120,0.0,4.0,93,0.00,,CLR,0.00,VWS V14.01,2013-06-23 08:14:00,
2013-06-23 03:15:00,67.5,65.4,29.96,East,88,1.0,4.0,93,0.00,,CLR,0.00,VWS V14.01,2013-06-23 08:15:00,
2013-06-23 03:17:00,67.5,65.4,29.96,SE,146,1.0,4.0,93,0.00,,CLR,0.00,VWS V14.01,2013-06-23 08:17:00,
2013-06-23 03:18:00,67.5,65.4,29.96,SE,136,0.0,5.0,93,0.00,,CLR,0.00,VWS V14.01,2013-06-23 08:18:00,
2013-06-23 03:19:00,67.5,65.4,29.96,SSE,153,0.0,5.0,93,0.00,,CLR,0.00,VWS V14.01,2013-06-23 08:19:00,
2013-06-23 03:20:00,67.5,65.4,29.96,ESE,115,0.0,5.0,93,0.00,,CLR,0.00,VWS V14.01,2013-06-23 08:20:00,
2013-06-23 03:22:00,67.5,65.4,29.96,SE,136,0.0,5.0,93,0.00,,CLR,0.00,VWS V14.01,2013-06-23 08:22:00,
2013-06-23 03:23:00,67.5,65.4,29.96,ESE,117,0.0,5.0,93,0.00,,CLR,0.00,VWS V14.01,2013-06-23 08:23:00,
2013-06-23 03:24:00,67.5,65.4,29.96,SE,138,0.0,5.0,93,0.00,,CLR,0.00,VWS V14.01,2013-06-23 08:24:00,
2013-06-23 03:25:00,67.5,65.4,29.96,SE,137,0.0,5.0,93,0.00,,CLR,0.00,VWS V14.01,2013-06-23 08:25:00,
2013-06-23 03:27:00,67.5,65.4,29.96,ENE,76,0.0,5.0,93,0.00,,CLR,0.00,VWS V14.01,2013-06-23 08:27:00,
2013-06-23 03:28:00,67.5,65.4,29.96,ENE,76,0.0,5.0,93,0.00,,CLR,0.00,VWS V14.01,2013-06-23 08:28:00,
2013-06-23 03:29:00,67.5,65.4,29.96,SSW,193,0.0,5.0,93,0.00,,CLR,0.00,VWS V14.01,2013-06-23 08:29:00,
2013-06-23 03:30:00,67.5,65.4,29.96,SSW,193,0.0,5.0,93,0.00,,CLR,0.00,VWS V14.01,2013-06-23 08:30:00,
2013-06-23 03:32:00,67.5,65.4,29.96,South,188,0.0,1.0,93,0.00,,CLR,0.00,VWS V14.01,2013-06-23 08:32:00,
2013-06-23 03:34:00,67.5,65.4,29.96,South,180,0.0,1.0,93,0.00,,CLR,0.00,VWS V14.01,2013-06-23 08:34:00,
2013-06-23 03:35:00,67.5,65.4,29.96,SSE,155,0.0,1.0,93,0.00,,CLR,0.00,VWS V14.01,2013-06-23 08:35:00,
2013-06-23 03:37:00,67.5,65.4,29.96,South,180,0.0,1.0,93,0.00,,CLR,0.00,VWS V14.01,2013-06-23 08:37:00,
2013-06-23 03:39:00,67.5,65.4,29.96,South,180,0.0,1.0,93,0.00,,CLR,0.00,VWS V14.01,2013-06-23 08:39:00,
2013-06-23 03:40:00,67.5,65.4,29.96,SSE,159,0.0,1.0,93,0.00,,CLR,0.00,VWS V14.01,2013-06-23 08:40:00,
2013-06-23 03:42:00,67.5,65.4,29.96,SSE,162,0.0,1.0,93,0.00,,CLR,0.00,VWS V14.01,2013-06-23 08:42:00,
2013-06-23 03:44:00,67.5,65.4,29.96,SSW,198,1.0,5.0,93,0.00,,CLR,0.00,VWS V14.01,2013-06-23 08:44:00,
2013-06-23 03:45:00,67.5,65.4,29.96,SSE,166,0.0,5.0,93,0.00,,CLR,0.00,VWS V14.01,2013-06-23 08:45:00,
2013-06-23 03:48:00,67.5,65.4,29.96,SSE,148,0.0,5.0,93,0.00,,CLR,0.00,VWS V14.01,2013-06-23 08:48:00,
2013-06-23 03:49:00,67.5,65.4,29.96,SW,219,0.0,5.0,93,0.00,,CLR,0.00,VWS V14.01,2013-06-23 08:49:00,
2013-06-23 03:50:00,67.5,65.4,29.96,SSE,161,0.0,5.0,93,0.00,,CLR,0.00,VWS V14.01,2013-06-23 08:50:00,
2013-06-23 03:51:00,67.5,65.4,29.96,SSE,161,0.0,5.0,93,0.00,,CLR,0.00,VWS V14.01,2013-06-23 08:51:00,
2013-06-23 03:53:00,67.5,65.4,29.96,SSE,156,0.0,5.0,93,0.00,,CLR,0.00,VWS V14.01,2013-06-23 08:53:00,
2013-06-23 03:54:00,67.5,65.4,29.96,SE,146,0.0,5.0,93,0.00,,CLR,0.00,VWS V14.01,2013-06-23 08:54:00,
2013-06-23 03:55:00,67.5,65.4,29.96,SSE,159,0.0,5.0,93,0.00,,CLR,0.00,VWS V14.01,2013-06-23 08:55:00,
2013-06-23 03:56:00,67.5,65.4,29.96,SSE,159,0.0,5.0,93,0.00,,CLR,0.00,VWS V14.01,2013-06-23 08:56:00,
2013-06-23 03:58:00,67.5,65.4,29.96,SE,127,0.0,5.0,93,0.00,,CLR,0.00,VWS V14.01,2013-06-23 08:58:00,
2013-06-23 03:59:00,67.5,65.4,29.96,SE,127,0.0,5.0,93,0.00,,CLR,0.00,VWS V14.01,2013-06-23 08:59:00,
2013-06-23 04:00:00,67.5,65.4,29.97,SE,127,0.0,5.0,93,0.00,,CLR,0.00,VWS V14.01,2013-06-23 09:00:00,
2013-06-23 04:01:00,67.5,65.4,29.97,South,174,0.0,0.0,93,0.00,,CLR,0.00,VWS V14.01,2013-06-23 09:01:00,
2013-06-23 04:03:00,67.5,65.4,29.97,SE,140,0.0,1.0,93,0.00,,CLR,0.00,VWS V14.01,2013-06-23 09:03:00,
2013-06-23 04:05:00,67.5,65.4,29.97,SE,140,0.0,1.0,93,0.00,,CLR,0.00,VWS V14.01,2013-06-23 09:05:00,
2013-06-23 04:06:00,67.5,65.4,29.97,South,172,0.0,1.0,93,0.00,,CLR,0.00,VWS V14.01,2013-06-23 09:06:00,
2013-06-23 04:09:00,67.5,65.4,29.97,SE,142,0.0,1.0,93,0.00,,CLR,0.00,VWS V14.01,2013-06-23 09:09:00,
2013-06-23 04:10:00,67.5,65.4,29.97,SE,141,0.0,1.0,93,0.00,,CLR,0.00,VWS V14.01,2013-06-23 09:10:00,
2013-06-23 04:11:00,67.5,65.4,29.97,SE,141,0.0,1.0,93,0.00,,CLR,0.00,VWS V14.01,2013-06-23 09:11:00,
2013-06-23 04:14:00,67.5,65.4,29.97,ESE,111,0.0,1.0,93,0.00,,CLR,0.00,VWS V14.01,2013-06-23 09:14:00,
2013-06-23 04:15:00,67.5,65.4,29.97,South,175,0.0,1.0,93,0.00,,CLR,0.00,VWS V14.01,2013-06-23 09:15:00,
2013-06-23 04:16:00,67.5,65.4,29.97,South,175,0.0,1.0,93,0.00,,CLR,0.00,VWS V14.01,2013-06-23 09:16:00,
2013-06-23 04:19:00,67.5,65.4,29.97,South,189,0.0,2.0,93,0.00,,CLR,0.00,VWS V14.01,2013-06-23 09:19:00,
2013-06-23 04:20:00,67.5,65.4,29.97,South,189,0.0,2.0,93,0.00,,CLR,0.00,VWS V14.01,2013-06-23 09:20:00,
2013-06-23 04:21:00,67.5,65.4,29.97,South,172,0.0,2.0,93,0.00,,CLR,0.00,VWS V14.01,2013-06-23 09:21:00,
2013-06-23 04:24:00,67.5,65.4,29.97,South,169,0.0,2.0,93,0.00,,CLR,0.00,VWS V14.01,2013-06-23 09:24:00,
2013-06-23 04:26:00,67.5,65.4,29.97,South,169,0.0,2.0,93,0.00,,CLR,0.00,VWS V14.01,2013-06-23 09:26:00,
2013-06-23 04:30:00,67.3,65.2,29.97,SE,124,0.0,2.0,93,0.00,,CLR,0.00,VWS V14.01,2013-06-23 09:30:00,
2013-06-23 04:31:00,67.3,65.2,29.97,SE,126,0.0,0.0,93,0.00,,CLR,0.00,VWS V14.01,2013-06-23 09:31:00,
2013-06-23 04:32:00,67.3,65.2,29.97,SE,126,0.0,0.0,93,0.00,,CLR,0.00,VWS V14.01,2013-06-23 09:32:00,
2013-06-23 04:35:00,67.3,65.2,29.97,ESE,121,0.0,0.0,93,0.00,,CLR,0.00,VWS V14.01,2013-06-23 09:35:00,
2013-06-23 04:36:00,67.3,65.2,29.97,ESE,121,0.0,0.0,93,0.00,,CLR,0.00,VWS V14.01,2013-06-23 09:36:00,
2013-06-23 04:37:00,67.3,65.2,29.97,ESE,121,0.0,0.0,93,0.00,,CLR,0.00,VWS V14.01,2013-06-23 09:37:00,
2013-06-23 04:40:00,67.3,65.2,29.97,ESE,119,0.0,0.0,93,0.00,,CLR,0.00,VWS V14.01,2013-06-23 09:40:00,
2013-06-23 04:41:00,67.3,64.9,29.97,ESE,108,0.0,0.0,92,0.00,,CLR,0.00,VWS V14.01,2013-06-23 09:41:00,
2013-06-23 04:43:00,67.3,64.9,29.97,ESE,108,0.0,0.0,92,0.00,,CLR,0.00,VWS V14.01,2013-06-23 09:43:00,
2013-06-23 04:45:00,67.3,64.9,29.97,ESE,112,0.0,0.0,92,0.00,,CLR,0.00,VWS V14.01,2013-06-23 09:45:00,
2013-06-23 04:46:00,67.3,64.9,29.97,ESE,113,0.0,0.0,92,0.00,,CLR,0.00,VWS V14.01,2013-06-23 09:46:00,
2013-06-23 04:47:00,67.3,64.9,29.97,SE,135,0.0,1.0,92,0.00,,CLR,0.00,VWS V14.01,2013-06-23 09:47:00,
2013-06-23 04:48:00,67.3,64.9,29.97,SE,135,0.0,1.0,92,0.00,,CLR,0.00,VWS V14.01,2013-06-23 09:48:00,
2013-06-23 04:50:00,67.3,64.9,29.97,SE,131,0.0,1.0,92,0.00,,CLR,0.00,VWS V14.01,2013-06-23 09:50:00,
2013-06-23 04:51:00,67.3,64.9,29.97,SE,131,0.0,1.0,92,0.00,,CLR,0.00,VWS V14.01,2013-06-23 09:51:00,
2013-06-23 04:52:00,67.3,64.9,29.97,SE,131,0.0,1.0,92,0.00,,CLR,0.00,VWS V14.01,2013-06-23 09:52:00,
2013-06-23 04:53:00,67.3,64.9,29.97,SSE,157,0.0,1.0,92,0.00,,CLR,0.00,VWS V14.01,2013-06-23 09:53:00,
2013-06-23 04:55:00,67.3,64.9,29.97,SSE,157,0.0,1.0,92,0.00,,CLR,0.00,VWS V14.01,2013-06-23 09:55:00,
2013-06-23 04:56:00,67.3,64.9,29.97,ESE,123,0.0,1.0,92,0.00,,CLR,0.00,VWS V14.01,2013-06-23 09:56:00,
2013-06-23 04:57:00,67.3,64.9,29.97,ESE,123,0.0,1.0,92,0.00,,CLR,0.00,VWS V14.01,2013-06-23 09:57:00,
2013-06-23 04:58:00,67.3,64.9,29.97,ESE,123,0.0,1.0,92,0.00,,CLR,0.00,VWS V14.01,2013-06-23 09:58:00,
2013-06-23 05:00:00,67.3,64.9,29.98,SSE,162,0.0,1.0,92,0.00,,CLR,0.00,VWS V14.01,2013-06-23 10:00:00,
2013-06-23 05:01:00,67.3,64.9,29.98,SSE,162,0.0,0.0,92,0.00,,CLR,0.00,VWS V14.01,2013-06-23 10:01:00,
2013-06-23 05:02:00,67.3,64.9,29.98,SSE,162,0.0,0.0,92,0.00,,CLR,0.00,VWS V14.01,2013-06-23 10:02:00,
2013-06-23 05:03:00,67.3,64.9,29.98,SSE,162,0.0,0.0,92,0.00,,CLR,0.00,VWS V14.01,2013-06-23 10:03:00,
2013-06-23 05:05:00,67.3,64.9,29.98,SSE,162,0.0,0.0,92,0.00,,CLR,0.00,VWS V14.01,2013-06-23 10:05:00,
2013-06-23 05:06:00,67.3,64.9,29.98,SSE,162,0.0,0.0,92,0.00,,CLR,0.00,VWS V14.01,2013-06-23 10:06:00,
2013-06-23 05:07:00,67.3,64.9,29.98,SSE,162,0.0,0.0,92,0.00,,CLR,0.00,VWS V14.01,2013-06-23 10:07:00,
2013-06-23 05:08:00,67.3,64.9,29.98,SSE,162,0.0,0.0,92,0.00,,CLR,0.00,VWS V14.01,2013-06-23 10:08:00,
2013-06-23 05:10:00,67.3,64.9,29.98,SSE,155,0.0,0.0,92,0.00,,CLR,0.00,VWS V14.01,2013-06-23 10:10:00,
2013-06-23 05:11:00,67.3,64.9,29.98,SSE,155,0.0,0.0,92,0.00,,CLR,0.00,VWS V14.01,2013-06-23 10:11:00,
2013-06-23 05:12:00,67.3,64.9,29.98,SSE,155,0.0,0.0,92,0.00,,CLR,0.00,VWS V14.01,2013-06-23 10:12:00,
2013-06-23 05:13:00,67.3,64.9,29.98,SSE,155,0.0,0.0,92,0.00,,CLR,0.00,VWS V14.01,2013-06-23 10:13:00,
2013-06-23 05:15:00,67.3,64.9,29.99,South,184,0.0,2.0,92,0.00,,CLR,0.00,VWS V14.01,2013-06-23 10:15:00,
2013-06-23 05:17:00,67.3,64.9,29.99,South,184,0.0,2.0,92,0.00,,CLR,0.00,VWS V14.01,2013-06-23 10:17:00,
2013-06-23 05:18:00,67.3,64.9,29.99,South,178,0.0,2.0,92,0.00,,CLR,0.00,VWS V14.01,2013-06-23 10:18:00,
2013-06-23 05:20:00,67.3,64.9,29.99,SSE,153,0.0,2.0,92,0.00,,CLR,0.00,VWS V14.01,2013-06-23 10:20:00,
2013-06-23 05:22:00,67.3,64.9,29.99,SSE,153,0.0,2.0,92,0.00,,CLR,0.00,VWS V14.01,2013-06-23 10:22:00,
2013-06-23 05:23:00,67.3,64.9,29.99,SSE,153,0.0,2.0,92,0.00,,CLR,0.00,VWS V14.01,2013-06-23 10:23:00,
2013-06-23 05:26:00,67.3,64.9,29.99,SSE,147,0.0,2.0,92,0.00,,CLR,0.00,VWS V14.01,2013-06-23 10:26:00,
2013-06-23 05:27:00,67.3,64.9,29.99,South,176,0.0,2.0,92,0.00,,CLR,0.00,VWS V14.01,2013-06-23 10:27:00,
2013-06-23 05:28:00,67.3,64.9,29.99,South,176,0.0,2.0,92,0.00,,CLR,0.00,VWS V14.01,2013-06-23 10:28:00,
2013-06-23 05:30:00,67.3,64.9,29.99,South,176,0.0,2.0,92,0.00,,,0.00,VWS V14.01,2013-06-23 10:30:00,
2013-06-23 05:31:00,67.3,64.9,29.99,South,176,0.0,0.0,92,0.00,,CLR,0.00,VWS V14.01,2013-06-23 10:31:00,
2013-06-23 05:32:00,67.3,64.9,29.99,South,180,0.0,0.0,92,0.00,,CLR,0.00,VWS V14.01,2013-06-23 10:32:00,
2013-06-23 05:34:00,67.3,64.9,29.99,South,182,0.0,0.0,92,0.00,,CLR,0.00,VWS V14.01,2013-06-23 10:34:00,
2013-06-23 05:36:00,67.3,64.9,29.99,SSW,193,0.0,2.0,92,0.00,,CLR,0.00,VWS V14.01,2013-06-23 10:36:00,
2013-06-23 05:37:00,67.3,64.9,29.99,SSW,194,0.0,2.0,92,0.00,,CLR,0.00,VWS V14.01,2013-06-23 10:37:00,
2013-06-23 05:38:00,67.3,64.9,29.99,SSW,194,0.0,2.0,92,0.00,,CLR,0.00,VWS V14.01,2013-06-23 10:38:00,
2013-06-23 05:39:00,67.5,65.1,29.99,SSW,194,0.0,2.0,92,0.00,,CLR,0.00,VWS V14.01,2013-06-23 10:39:00,
2013-06-23 05:41:00,67.5,65.1,29.99,SSW,194,0.0,2.0,92,0.00,,CLR,0.00,VWS V14.01,2013-06-23 10:41:00,
2013-06-23 05:42:00,67.5,65.1,29.99,SSW,194,0.0,2.0,92,0.00,,CLR,0.00,VWS V14.01,2013-06-23 10:42:00,
2013-06-23 05:43:00,67.5,65.1,29.99,SSW,194,0.0,2.0,92,0.00,,CLR,0.00,VWS V14.01,2013-06-23 10:43:00,
2013-06-23 05:44:00,67.5,65.1,29.99,SSW,194,0.0,2.0,92,0.00,,CLR,0.00,VWS V14.01,2013-06-23 10:44:00,
2013-06-23 05:46:00,67.5,65.1,29.98,South,190,0.0,2.0,92,0.00,,SCT110,0.00,VWS V14.01,2013-06-23 10:46:00,
2013-06-23 05:47:00,67.5,65.1,29.98,South,190,0.0,2.0,92,0.00,,SCT110,0.00,VWS V14.01,2013-06-23 10:47:00,
2013-06-23 05:48:00,67.5,65.1,29.98,South,190,0.0,2.0,92,0.00,,SCT110,0.00,VWS V14.01,2013-06-23 10:48:00,
2013-06-23 05:49:00,67.5,65.1,29.98,South,190,0.0,2.0,92,0.00,,SCT110,0.00,VWS V14.01,2013-06-23 10:49:00,
2013-06-23 05:51:00,67.5,65.1,29.98,South,190,0.0,2.0,92,0.00,,SCT110,0.00,VWS V14.01,2013-06-23 10:51:00,
2013-06-23 05:53:00,67.5,65.1,29.98,South,183,0.0,2.0,92,0.00,,SCT110,0.00,VWS V14.01,2013-06-23 10:53:00,
2013-06-23 05:55:00,67.5,65.1,29.98,SSW,197,0.0,2.0,92,0.00,,SCT110,0.00,VWS V14.01,2013-06-23 10:55:00,
2013-06-23 05:56:00,67.5,65.1,29.98,SSW,195,0.0,2.0,92,0.00,,SCT110,0.00,VWS V14.01,2013-06-23 10:56:00,
2013-06-23 05:58:00,67.5,65.1,29.98,SSW,195,0.0,2.0,92,0.00,,SCT110,0.00,VWS V14.01,2013-06-23 10:58:00,
2013-06-23 06:00:00,67.5,65.1,29.99,SSW,195,0.0,2.0,92,0.00,,SCT110,0.00,VWS V14.01,2013-06-23 11:00:00,
2013-06-23 06:02:00,67.5,65.1,29.99,SSW,195,0.0,2.0,92,0.00,,CLR,0.00,VWS V14.01,2013-06-23 11:02:00,
2013-06-23 06:03:00,67.5,65.1,29.99,SSW,195,0.0,2.0,92,0.00,,CLR,0.00,VWS V14.01,2013-06-23 11:03:00,
2013-06-23 06:05:00,67.5,65.1,29.99,SSW,195,0.0,2.0,92,0.00,,CLR,0.00,VWS V14.01,2013-06-23 11:05:00,
2013-06-23 06:07:00,67.5,65.1,29.99,SSW,194,0.0,3.0,92,0.00,,CLR,0.00,VWS V14.01,2013-06-23 11:07:00,
2013-06-23 06:08:00,67.5,65.1,29.99,SSW,193,0.0,3.0,92,0.00,,CLR,0.00,VWS V14.01,2013-06-23 11:08:00,
2013-06-23 06:10:00,67.7,65.3,29.99,SSW,192,0.0,3.0,92,0.00,,CLR,0.00,VWS V14.01,2013-06-23 11:10:00,
2013-06-23 06:12:00,67.5,65.1,29.99,South,190,0.0,3.0,92,0.00,,CLR,0.00,VWS V14.01,2013-06-23 11:12:00,
2013-06-23 06:13:00,67.7,65.3,29.99,South,190,0.0,3.0,92,0.00,,CLR,0.00,VWS V14.01,2013-06-23 11:13:00,
2013-06-23 06:15:00,67.7,65.3,29.99,South,190,0.0,3.0,92,0.00,,CLR,0.00,VWS V14.01,2013-06-23 11:15:00,
2013-06-23 06:17:00,67.7,65.3,29.99,South,190,0.0,3.0,92,0.00,,CLR,0.00,VWS V14.01,2013-06-23 11:17:00,
2013-06-23 06:18:00,67.7,65.3,29.99,SSE,166,0.0,3.0,92,0.00,,CLR,0.00,VWS V14.01,2013-06-23 11:18:00,
2013-06-23 06:20:00,67.7,65.3,29.99,SSE,166,0.0,3.0,92,0.00,,CLR,0.00,VWS V14.01,2013-06-23 11:20:00,
2013-06-23 06:22:00,67.7,65.3,29.99,SSE,166,0.0,3.0,92,0.00,,CLR,0.00,VWS V14.01,2013-06-23 11:22:00,
2013-06-23 06:23:00,67.7,65.3,29.99,SSE,166,0.0,3.0,92,0.00,,CLR,0.00,VWS V14.01,2013-06-23 11:23:00,
2013-06-23 06:25:00,67.7,65.3,29.99,South,182,0.0,3.0,92,0.00,,CLR,0.00,VWS V14.01,2013-06-23 11:25:00,
2013-06-23 06:27:00,67.8,65.4,29.99,SSE,164,0.0,3.0,92,0.00,,CLR,0.00,VWS V14.01,2013-06-23 11:27:00,
2013-06-23 06:28:00,67.8,65.4,29.99,SSE,164,0.0,3.0,92,0.00,,CLR,0.00,VWS V14.01,2013-06-23 11:28:00,
2013-06-23 06:30:00,67.8,65.4,29.99,SSE,165,0.0,0.0,92,0.00,,CLR,0.00,VWS V14.01,2013-06-23 11:30:00,
2013-06-23 06:32:00,67.8,65.1,29.99,South,182,0.0,1.0,91,0.00,,CLR,0.00,VWS V14.01,2013-06-23 11:32:00,
2013-06-23 06:33:00,67.8,65.1,29.99,South,178,0.0,1.0,91,0.00,,CLR,0.00,VWS V14.01,2013-06-23 11:33:00,
2013-06-23 06:34:00,68.0,65.3,29.99,South,177,0.0,1.0,91,0.00,,CLR,0.00,VWS V14.01,2013-06-23 11:34:00,
2013-06-23 06:35:00,68.0,65.3,29.99,South,177,0.0,1.0,91,0.00,,CLR,0.00,VWS V14.01,2013-06-23 11:35:00,
2013-06-23 06:37:00,68.0,65.3,29.99,South,188,0.0,3.0,91,0.00,,CLR,0.00,VWS V14.01,2013-06-23 11:37:00,
2013-06-23 06:38:00,68.0,65.3,29.99,South,188,0.0,3.0,91,0.00,,CLR,0.00,VWS V14.01,2013-06-23 11:38:00,
2013-06-23 06:39:00,68.0,65.3,29.99,South,188,0.0,3.0,91,0.00,,CLR,0.00,VWS V14.01,2013-06-23 11:39:00,
2013-06-23 06:41:00,68.2,65.5,29.99,South,182,0.0,3.0,91,0.00,,CLR,0.00,VWS V14.01,2013-06-23 11:41:00,
2013-06-23 06:43:00,68.2,65.5,29.99,SSW,193,0.0,3.0,91,0.00,,CLR,0.00,VWS V14.01,2013-06-23 11:43:00,
2013-06-23 06:44:00,68.2,65.5,29.99,SSW,193,0.0,3.0,91,0.00,,CLR,0.00,VWS V14.01,2013-06-23 11:44:00,
2013-06-23 06:46:00,68.3,65.6,29.99,South,180,0.0,3.0,91,0.00,,SCT110,0.00,VWS V14.01,2013-06-23 11:46:00,
2013-06-23 06:48:00,68.5,65.8,29.99,South,175,0.0,3.0,91,0.00,,SCT110,0.00,VWS V14.01,2013-06-23 11:48:00,
2013-06-23 06:49:00,68.5,65.5,29.99,SSE,159,0.0,3.0,90,0.00,,SCT110,0.00,VWS V14.01,2013-06-23 11:49:00,
2013-06-23 06:51:00,68.7,65.7,29.99,South,177,0.0,3.0,90,0.00,,SCT110,0.00,VWS V14.01,2013-06-23 11:51:00,
2013-06-23 06:53:00,68.7,65.7,29.99,South,177,0.0,3.0,90,0.00,,SCT110,0.00,VWS V14.01,2013-06-23 11:53:00,
2013-06-23 06:54:00,68.8,65.8,29.99,South,177,0.0,3.0,90,0.00,,SCT110,0.00,VWS V14.01,2013-06-23 11:54:00,
2013-06-23 06:55:00,68.8,65.8,29.99,SSW,200,0.0,3.0,90,0.00,,SCT110,0.00,VWS V14.01,2013-06-23 11:55:00,
2013-06-23 06:56:00,68.8,65.8,29.99,SSW,200,0.0,3.0,90,0.00,,SCT110,0.00,VWS V14.01,2013-06-23 11:56:00,
2013-06-23 06:58:00,68.8,65.4,29.99,SSE,164,0.0,3.0,89,0.00,,SCT110,0.00,VWS V14.01,2013-06-23 11:58:00,
2013-06-23 06:59:00,68.8,65.4,29.99,South,172,0.0,3.0,89,0.00,,SCT110,0.00,VWS V14.01,2013-06-23 11:59:00,
2013-06-23 07:00:00,69.0,65.6,30.00,South,172,0.0,3.0,89,0.00,,SCT110,0.00,VWS V14.01,2013-06-23 12:00:00,
2013-06-23 07:01:00,69.0,65.9,30.00,South,172,0.0,0.0,90,0.00,,SCT110,0.00,VWS V14.01,2013-06-23 12:01:00,
2013-06-23 07:03:00,69.0,65.6,30.00,SSW,196,0.0,4.0,89,0.00,,SCT110,0.00,VWS V14.01,2013-06-23 12:03:00,
2013-06-23 07:04:00,69.0,65.6,30.00,SSW,195,0.0,4.0,89,0.00,,SCT110,0.00,VWS V14.01,2013-06-23 12:04:00,
2013-06-23 07:05:00,69.0,65.6,30.00,South,183,0.0,4.0,89,0.00,,SCT110,0.00,VWS V14.01,2013-06-23 12:05:00,
2013-06-23 07:06:00,69.0,65.6,30.00,South,180,0.0,4.0,89,0.00,,SCT110,0.00,VWS V14.01,2013-06-23 12:06:00,
2013-06-23 07:09:00,69.2,65.8,30.00,SSW,195,0.0,5.0,89,0.00,,SCT110,0.00,VWS V14.01,2013-06-23 12:09:00,
2013-06-23 07:10:00,69.2,65.8,30.00,SSW,195,0.0,5.0,89,0.00,,SCT110,0.00,VWS V14.01,2013-06-23 12:10:00,
2013-06-23 07:11:00,69.2,65.8,30.00,SSW,195,0.0,5.0,89,0.00,,SCT110,0.00,VWS V14.01,2013-06-23 12:11:00,
2013-06-23 07:14:00,69.3,65.9,30.00,SSW,202,1.0,5.0,89,0.00,,SCT110,0.00,VWS V14.01,2013-06-23 12:14:00,
2013-06-23 07:15:00,69.3,65.9,29.99,South,176,0.0,5.0,89,0.00,,SCT110,0.00,VWS V14.01,2013-06-23 12:15:00,
2013-06-23 07:16:00,69.3,65.9,29.99,SSW,195,0.0,5.0,89,0.00,,SCT110,0.00,VWS V14.01,2013-06-23 12:16:00,
2013-06-23 07:19:00,69.5,66.1,29.99,SSW,200,0.0,5.0,89,0.00,,SCT110,0.00,VWS V14.01,2013-06-23 12:19:00,
2013-06-23 07:20:00,69.5,66.1,29.99,SSW,200,0.0,5.0,89,0.00,,SCT110,0.00,VWS V14.01,2013-06-23 12:20:00,
2013-06-23 07:21:00,69.7,66.3,29.99,SSW,196,0.0,5.0,89,0.00,,SCT110,0.00,VWS V14.01,2013-06-23 12:21:00,
2013-06-23 07:24:00,69.8,66.4,29.99,South,184,0.0,5.0,89,0.00,,SCT110,0.00,VWS V14.01,2013-06-23 12:24:00,
2013-06-23 07:25:00,69.8,66.1,29.99,SSW,193,0.0,5.0,88,0.00,,SCT110,0.00,VWS V14.01,2013-06-23 12:25:00,
2013-06-23 07:27:00,69.8,66.4,29.99,SSW,193,0.0,5.0,89,0.00,,SCT110,0.00,VWS V14.01,2013-06-23 12:27:00,
2013-06-23 07:30:00,70.2,66.5,30.00,South,176,0.0,5.0,88,0.00,,SCT110,0.00,VWS V14.01,2013-06-23 12:30:00,
2013-06-23 07:31:00,70.2,66.5,30.00,South,173,0.0,1.0,88,0.00,,SCT110,0.00,VWS V14.01,2013-06-23 12:31:00,
2013-06-23 07:32:00,70.2,66.5,30.00,South,190,2.0,4.0,88,0.00,,SCT110,0.00,VWS V14.01,2013-06-23 12:32:00,
2013-06-23 07:35:00,70.3,66.2,30.00,South,179,3.0,4.0,87,0.00,,SCT110,0.00,VWS V14.01,2013-06-23 12:35:00,
2013-06-23 07:36:00,70.3,66.2,30.00,South,179,0.0,4.0,87,0.00,,SCT110,0.00,VWS V14.01,2013-06-23 12:36:00,
2013-06-23 07:37:00,70.5,66.4,30.00,South,179,0.0,4.0,87,0.00,,SCT110,0.00,VWS V14.01,2013-06-23 12:37:00,
2013-06-23 07:40:00,70.5,66.4,30.00,South,174,0.0,4.0,87,0.00,,SCT110,0.00,VWS V14.01,2013-06-23 12:40:00,
2013-06-23 07:41:00,70.7,66.7,30.00,South,172,0.0,4.0,87,0.00,,SCT110,0.00,VWS V14.01,2013-06-23 12:41:00,
2013-06-23 07:42:00,70.7,66.7,30.00,SSW,198,2.0,6.0,87,0.00,,SCT110,0.00,VWS V14.01,2013-06-23 12:42:00,
2013-06-23 07:45:00,70.7,66.7,30.00,South,182,0.0,6.0,87,0.00,,SCT110,0.00,VWS V14.01,2013-06-23 12:45:00,
2013-06-23 07:46:00,70.7,66.7,30.00,SSW,200,3.0,6.0,87,0.00,,SCT110,0.00,VWS V14.01,2013-06-23 12:46:00,
2013-06-23 07:48:00,70.7,66.7,30.00,South,189,0.0,6.0,87,0.00,,SCT110,0.00,VWS V14.01,2013-06-23 12:48:00,
2013-06-23 07:50:00,70.7,66.3,30.00,SSE,160,0.0,6.0,86,0.00,,SCT110,0.00,VWS V14.01,2013-06-23 12:50:00,
2013-06-23 07:51:00,70.7,66.3,30.00,SSW,198,0.0,6.0,86,0.00,,SCT110,0.00,VWS V14.01,2013-06-23 12:51:00,
2013-06-23 07:53:00,70.7,66.3,30.00,South,189,1.0,6.0,86,0.00,,SCT110,0.00,VWS V14.01,2013-06-23 12:53:00,
2013-06-23 07:55:00,70.7,66.3,30.00,SSW,195,2.0,6.0,86,0.00,,SCT110,0.00,VWS V14.01,2013-06-23 12:55:00,
2013-06-23 07:56:00,70.7,66.3,30.00,SSW,194,0.0,6.0,86,0.00,,SCT110,0.00,VWS V14.01,2013-06-23 12:56:00,
2013-06-23 07:58:00,70.7,66.7,30.00,South,187,0.0,6.0,87,0.00,,SCT110,0.00,VWS V14.01,2013-06-23 12:58:00,
2013-06-23 08:00:00,70.7,66.7,30.00,South,187,0.0,6.0,87,0.00,,SCT110,0.00,VWS V14.01,2013-06-23 13:00:00,
2013-06-23 08:01:00,70.7,66.7,30.00,South,187,0.0,0.0,87,0.00,,,0.00,VWS V14.01,2013-06-23 13:01:00,
2013-06-23 08:02:00,70.7,66.7,30.00,South,187,0.0,0.0,87,0.00,,,0.00,VWS V14.01,2013-06-23 13:02:00,
2013-06-23 08:04:00,70.7,66.7,30.00,SSW,207,4.0,5.0,87,0.00,,,0.00,VWS V14.01,2013-06-23 13:04:00,
2013-06-23 08:05:00,70.3,66.2,30.00,SSW,200,0.0,6.0,87,0.00,,,0.00,VWS V14.01,2013-06-23 13:05:00,
2013-06-23 08:06:00,70.3,66.2,30.00,SSW,200,0.0,6.0,87,0.00,,,0.01,VWS V14.01,2013-06-23 13:06:00,
2013-06-23 08:07:00,70.3,66.2,30.00,SSW,200,0.0,6.0,87,0.01,,,0.01,VWS V14.01,2013-06-23 13:07:00,
2013-06-23 08:09:00,70.3,66.6,30.00,South,186,0.0,6.0,88,0.01,,,0.01,VWS V14.01,2013-06-23 13:09:00,
2013-06-23 08:10:00,70.3,66.6,30.00,SSW,204,0.0,6.0,88,0.01,,,0.01,VWS V14.01,2013-06-23 13:10:00,
2013-06-23 08:11:00,70.3,66.6,30.00,SSW,205,0.0,6.0,88,0.01,,,0.01,VWS V14.01,2013-06-23 13:11:00,
2013-06-23 08:12:00,70.3,66.6,30.00,South,181,9.0,9.0,88,0.01,,,0.01,VWS V14.01,2013-06-23 13:12:00,
2013-06-23 08:14:00,70.2,66.5,30.00,SSW,198,2.0,9.0,88,0.01,,,0.01,VWS V14.01,2013-06-23 13:14:00,
2013-06-23 08:16:00,70.2,66.5,30.00,South,191,2.0,9.0,88,0.01,,,0.01,VWS V14.01,2013-06-23 13:16:00,
2013-06-23 08:17:00,70.2,66.5,30.00,SE,140,0.0,10.0,88,0.01,,,0.01,VWS V14.01,2013-06-23 13:17:00,
2013-06-23 08:19:00,70.0,66.6,30.00,SSE,158,0.0,10.0,89,0.01,,,0.01,VWS V14.01,2013-06-23 13:19:00,
2013-06-23 08:21:00,70.0,66.3,30.00,South,191,5.0,11.0,88,0.01,,,0.01,VWS V14.01,2013-06-23 13:21:00,
2013-06-23 08:22:00,69.8,66.4,30.00,SSE,166,0.0,11.0,89,0.01,,,0.01,VWS V14.01,2013-06-23 13:22:00,
2013-06-23 08:24:00,69.8,66.4,30.00,SW,230,4.0,11.0,89,0.01,,,0.01,VWS V14.01,2013-06-23 13:24:00,
2013-06-23 08:26:00,69.7,66.0,30.00,South,188,7.0,12.0,88,0.01,,,0.01,VWS V14.01,2013-06-23 13:26:00,
2013-06-23 08:27:00,69.7,66.0,30.00,South,184,0.0,12.0,88,0.01,,,0.01,VWS V14.01,2013-06-23 13:27:00,
2013-06-23 08:29:00,69.5,65.8,30.00,SW,218,0.0,12.0,88,0.01,,,0.01,VWS V14.01,2013-06-23 13:29:00,
2013-06-23 08:30:00,69.3,65.6,30.00,SW,221,4.0,12.0,88,0.01,,,0.01,VWS V14.01,2013-06-23 13:30:00,
2013-06-23 08:31:00,69.3,65.6,30.00,SW,223,1.0,12.0,88,0.01,,,0.01,VWS V14.01,2013-06-23 13:31:00,
2013-06-23 08:32:00,69.2,65.5,30.00,South,186,0.0,7.0,88,0.01,,,0.01,VWS V14.01,2013-06-23 13:32:00,
2013-06-23 08:34:00,69.2,65.5,30.00,South,190,0.0,7.0,88,0.01,,,0.01,VWS V14.01,2013-06-23 13:34:00,
2013-06-23 08:36:00,69.0,65.0,30.00,SSW,192,0.0,7.0,87,0.01,,,0.01,VWS V14.01,2013-06-23 13:36:00,
2013-06-23 08:37:00,69.0,65.0,30.00,SSW,203,0.0,7.0,87,0.01,,,0.01,VWS V14.01,2013-06-23 13:37:00,
2013-06-23 08:39:00,68.8,64.8,30.00,South,177,3.0,7.0,87,0.01,,,0.01,VWS V14.01,2013-06-23 13:39:00,
2013-06-23 08:41:00,68.7,64.7,30.00,South,186,0.0,7.0,87,0.01,,,0.01,VWS V14.01,2013-06-23 13:41:00,
2013-06-23 08:42:00,68.7,64.7,30.00,SSW,200,6.0,7.0,87,0.01,,,0.01,VWS V14.01,2013-06-23 13:42:00,
2013-06-23 08:44:00,68.5,64.5,30.00,South,188,0.0,7.0,87,0.01,,,0.01,VWS V14.01,2013-06-23 13:44:00,
2013-06-23 08:46:00,68.3,64.3,30.01,SSW,213,2.0,10.0,87,0.01,,OVC080,0.01,VWS V14.01,2013-06-23 13:46:00,
2013-06-23 08:47:00,68.2,64.2,30.01,SW,224,4.0,10.0,87,0.01,,OVC080,0.01,VWS V14.01,2013-06-23 13:47:00,
2013-06-23 08:48:00,68.2,64.2,30.01,SSW,196,0.0,10.0,87,0.01,,OVC080,0.01,VWS V14.01,2013-06-23 13:48:00,
2013-06-23 08:49:00,68.2,64.2,30.01,SSW,192,0.0,10.0,87,0.01,,OVC080,0.01,VWS V14.01,2013-06-23 13:49:00,
2013-06-23 08:51:00,68.0,64.0,30.01,South,191,0.0,10.0,87,0.01,,OVC080,0.01,VWS V14.01,2013-06-23 13:51:00,
2013-06-23 08:52:00,68.0,64.0,30.01,South,173,0.0,10.0,87,0.01,,OVC080,0.01,VWS V14.01,2013-06-23 13:52:00,
2013-06-23 08:53:00,67.8,63.8,30.01,South,185,2.0,10.0,87,0.01,,OVC080,0.01,VWS V14.01,2013-06-23 13:53:00,
2013-06-23 08:54:00,67.8,63.8,30.01,South,185,0.0,10.0,87,0.02,,OVC080,0.02,VWS V14.01,2013-06-23 13:54:00,
2013-06-23 08:57:00,67.7,64.0,30.01,South,189,0.0,10.0,88,0.02,,OVC080,0.02,VWS V14.01,2013-06-23 13:57:00,
2013-06-23 08:58:00,67.7,64.0,30.01,South,187,0.0,10.0,88,0.02,,OVC080,0.02,VWS V14.01,2013-06-23 13:58:00,
2013-06-23 09:00:00,67.7,64.0,30.01,SSW,207,0.0,10.0,88,0.02,,,0.02,VWS V14.01,2013-06-23 14:00:00,
2013-06-23 09:01:00,67.5,63.8,30.01,SSW,205,0.0,0.0,88,0.02,,OVC110,0.02,VWS V14.01,2013-06-23 14:01:00,
2013-06-23 09:02:00,67.5,63.8,30.01,SSW,196,0.0,0.0,88,0.03,,OVC110,0.03,VWS V14.01,2013-06-23 14:02:00,
2013-06-23 09:03:00,67.5,63.8,30.01,SSW,193,0.0,1.0,88,0.03,,OVC110,0.03,VWS V14.01,2013-06-23 14:03:00,
2013-06-23 09:07:00,67.3,64.0,30.01,South,185,0.0,1.0,89,0.04,,OVC110,0.04,VWS V14.01,2013-06-23 14:07:00,
2013-06-23 09:08:00,67.3,64.0,30.01,SW,219,0.0,1.0,89,0.04,,OVC110,0.04,VWS V14.01,2013-06-23 14:08:00,
2013-06-23 09:12:00,67.2,64.2,30.01,SW,218,0.0,1.0,90,0.05,,OVC110,0.05,VWS V14.01,2013-06-23 14:12:00,
2013-06-23 09:13:00,67.3,64.3,30.01,SW,218,0.0,1.0,90,0.05,,OVC110,0.05,VWS V14.01,2013-06-23 14:13:00,
2013-06-23 09:17:00,67.2,64.2,30.01,South,190,0.0,1.0,90,0.06,,OVC110,0.06,VWS V14.01,2013-06-23 14:17:00,
2013-06-23 09:18:00,67.2,64.2,30.01,SSE,157,0.0,1.0,90,0.06,,OVC110,0.06,VWS V14.01,2013-06-23 14:18:00,
2013-06-23 09:22:00,67.2,64.2,30.01,SSE,161,0.0,1.0,90,0.07,,OVC110,0.07,VWS V14.01,2013-06-23 14:22:00,
2013-06-23 09:23:00,67.2,64.2,30.01,SSW,193,0.0,1.0,90,0.07,,OVC110,0.07,VWS V14.01,2013-06-23 14:23:00,
2013-06-23 09:24:00,67.2,64.2,30.01,South,187,0.0,1.0,90,0.07,,OVC110,0.07,VWS V14.01,2013-06-23 14:24:00,
2013-06-23 09:27:00,67.0,64.3,30.01,South,180,0.0,1.0,91,0.08,,OVC110,0.08,VWS V14.01,2013-06-23 14:27:00,
2013-06-23 09:28:00,67.0,64.3,30.01,South,180,0.0,1.0,91,0.08,,OVC110,0.08,VWS V14.01,2013-06-23 14:28:00,
2013-06-23 09:29:00,67.0,64.3,30.01,South,180,0.0,1.0,91,0.08,,OVC110,0.08,VWS V14.01,2013-06-23 14:29:00,
2013-06-23 09:30:00,67.0,64.3,30.00,South,180,0.0,1.0,91,0.08,,,0.08,VWS V14.01,2013-06-23 14:30:00,
2013-06-23 09:33:00,67.0,64.3,30.00,SSE,156,0.0,1.0,91,0.08,,OVC065,0.09,VWS V14.01,2013-06-23 14:33:00,
2013-06-23 09:34:00,67.0,64.3,30.00,SSE,156,0.0,1.0,91,0.08,,OVC065,0.09,VWS V14.01,2013-06-23 14:34:00,
2013-06-23 09:38:00,66.8,64.1,30.00,South,173,2.0,3.0,91,0.08,,OVC065,0.09,VWS V14.01,2013-06-23 14:38:00,
2013-06-23 09:39:00,66.8,64.1,30.00,SSW,196,6.0,6.0,91,0.09,,OVC065,0.10,VWS V14.01,2013-06-23 14:39:00,
2013-06-23 09:43:00,66.8,64.4,30.00,ESE,108,0.0,6.0,92,0.09,,OVC065,0.10,VWS V14.01,2013-06-23 14:43:00,
2013-06-23 09:44:00,66.8,64.4,30.00,SSW,193,0.0,6.0,92,0.09,,OVC065,0.10,VWS V14.01,2013-06-23 14:44:00,
2013-06-23 09:48:00,66.8,64.4,30.00,SSW,194,0.0,6.0,92,0.10,,OVC065,0.11,VWS V14.01,2013-06-23 14:48:00,
2013-06-23 09:49:00,66.8,64.4,30.00,SSW,198,0.0,6.0,92,0.10,,OVC065,0.11,VWS V14.01,2013-06-23 14:49:00,
2013-06-23 09:50:00,66.8,64.4,30.00,South,184,0.0,6.0,92,0.10,,OVC065,0.11,VWS V14.01,2013-06-23 14:50:00,
2013-06-23 09:53:00,67.0,64.6,30.00,SSW,205,0.0,6.0,92,0.10,,OVC065,0.11,VWS V14.01,2013-06-23 14:53:00,
2013-06-23 09:54:00,67.0,64.6,30.00,SSW,194,0.0,6.0,92,0.10,,OVC065,0.11,VWS V14.01,2013-06-23 14:54:00,
2013-06-23 09:55:00,67.0,64.6,30.00,South,178,0.0,6.0,92,0.10,,OVC065,0.11,VWS V14.01,2013-06-23 14:55:00,
2013-06-23 09:58:00,67.2,64.8,30.00,SW,221,0.0,6.0,92,0.11,,OVC065,0.12,VWS V14.01,2013-06-23 14:58:00,
2013-06-23 09:59:00,67.2,64.8,30.00,SW,221,0.0,6.0,92,0.11,,OVC065,0.12,VWS V14.01,2013-06-23 14:59:00,
2013-06-23 10:00:00,67.2,64.8,29.99,SW,221,0.0,6.0,92,0.11,,OVC065,0.12,VWS V14.01,2013-06-23 15:00:00,
2013-06-23 10:04:00,67.5,65.4,29.99,SSE,162,0.0,0.0,93,0.10,,OVC065,0.12,VWS V14.01,2013-06-23 15:04:00,
2013-06-23 10:05:00,67.5,65.4,29.99,South,180,0.0,0.0,93,0.10,,OVC065,0.12,VWS V14.01,2013-06-23 15:05:00,
2013-06-23 10:09:00,67.7,65.6,29.99,SSE,156,0.0,1.0,93,0.10,,OVC065,0.12,VWS V14.01,2013-06-23 15:09:00,
2013-06-23 10:10:00,67.7,65.6,29.99,SSE,156,0.0,1.0,93,0.10,,OVC065,0.12,VWS V14.01,2013-06-23 15:10:00,
2013-06-23 10:14:00,67.8,65.7,29.99,SSE,155,0.0,1.0,93,0.11,,OVC065,0.13,VWS V14.01,2013-06-23 15:14:00,
2013-06-23 10:15:00,67.8,65.7,29.99,South,170,0.0,1.0,93,0.11,,OVC065,0.13,VWS V14.01,2013-06-23 15:15:00,
2013-06-23 10:19:00,67.8,65.7,29.99,South,179,0.0,1.0,93,0.11,,OVC065,0.13,VWS V14.01,2013-06-23 15:19:00,
2013-06-23 10:20:00,67.8,65.7,29.99,South,184,0.0,1.0,93,0.11,,OVC065,0.13,VWS V14.01,2013-06-23 15:20:00,
2013-06-23 10:21:00,67.8,65.7,29.99,South,184,0.0,1.0,93,0.11,,OVC065,0.13,VWS V14.01,2013-06-23 15:21:00,
2013-06-23 10:24:00,67.8,65.7,29.99,SSE,150,0.0,1.0,93,0.11,,OVC065,0.13,VWS V14.01,2013-06-23 15:24:00,
2013-06-23 10:25:00,67.8,65.7,29.99,SSE,150,0.0,1.0,93,0.11,,OVC065,0.13,VWS V14.01,2013-06-23 15:25:00,
2013-06-23 10:26:00,67.8,65.7,29.99,SSE,155,0.0,1.0,93,0.11,,OVC065,0.13,VWS V14.01,2013-06-23 15:26:00,
2013-06-23 10:29:00,67.8,65.7,29.99,SSW,201,0.0,1.0,93,0.11,,OVC065,0.13,VWS V14.01,2013-06-23 15:29:00,
2013-06-23 10:30:00,67.8,65.7,30.00,South,180,0.0,1.0,93,0.12,,OVC065,0.14,VWS V14.01,2013-06-23 15:30:00,
2013-06-23 10:31:00,67.8,65.7,30.00,South,169,0.0,0.0,93,0.06,,OVC065,0.14,VWS V14.01,2013-06-23 15:31:00,
2013-06-23 10:32:00,67.8,65.7,30.00,South,182,2.0,2.0,93,0.06,,OVC065,0.14,VWS V14.01,2013-06-23 15:32:00,
2013-06-23 10:35:00,68.0,65.9,30.00,South,184,3.0,6.0,93,0.06,,OVC065,0.14,VWS V14.01,2013-06-23 15:35:00,
2013-06-23 10:36:00,68.0,65.9,30.00,South,188,2.0,6.0,93,0.06,,OVC065,0.14,VWS V14.01,2013-06-23 15:36:00,
2013-06-23 10:37:00,68.0,65.9,30.00,South,188,0.0,6.0,93,0.06,,OVC065,0.14,VWS V14.01,2013-06-23 15:37:00,
2013-06-23 10:40:00,68.0,65.9,30.00,SSW,193,0.0,6.0,93,0.06,,OVC065,0.14,VWS V14.01,2013-06-23 15:40:00,
2013-06-23 10:41:00,68.0,65.9,30.00,South,182,3.0,6.0,93,0.06,,OVC065,0.14,VWS V14.01,2013-06-23 15:41:00,
2013-06-23 10:42:00,68.0,65.9,30.00,South,182,1.0,6.0,93,0.06,,OVC065,0.14,VWS V14.01,2013-06-23 15:42:00,
2013-06-23 10:45:00,68.0,66.2,30.00,South,178,0.0,6.0,94,0.06,,OVC065,0.14,VWS V14.01,2013-06-23 15:45:00,
2013-06-23 10:47:00,68.0,66.2,30.00,South,175,0.0,6.0,94,0.06,,-RA,0.14,VWS V14.01,2013-06-23 15:47:00,
2013-06-23 10:50:00,68.0,66.2,30.00,South,184,0.0,6.0,94,0.06,,-RA,0.14,VWS V14.01,2013-06-23 15:50:00,
2013-06-23 10:51:00,68.0,66.2,30.00,South,185,0.0,6.0,94,0.06,,-RA,0.14,VWS V14.01,2013-06-23 15:51:00,
2013-06-23 10:52:00,68.0,66.2,30.00,South,189,0.0,6.0,94,0.06,,-RA,0.14,VWS V14.01,2013-06-23 15:52:00,
2013-06-23 10:53:00,68.0,65.9,30.00,South,189,0.0,6.0,93,0.06,,-RA,0.14,VWS V14.01,2013-06-23 15:53:00,
2013-06-23 10:55:00,67.8,66.0,30.00,South,189,0.0,6.0,94,0.06,,-RA,0.14,VWS V14.01,2013-06-23 15:55:00,
2013-06-23 10:56:00,67.8,66.0,30.00,SSW,193,1.0,6.0,94,0.06,,-RA,0.14,VWS V14.01,2013-06-23 15:56:00,
2013-06-23 10:57:00,67.8,66.0,30.00,South,191,0.0,6.0,94,0.06,,-RA,0.14,VWS V14.01,2013-06-23 15:57:00,
2013-06-23 10:58:00,67.8,66.0,30.00,South,182,0.0,6.0,94,0.06,,-RA,0.14,VWS V14.01,2013-06-23 15:58:00,
2013-06-23 11:00:00,67.8,66.0,30.00,South,189,0.0,6.0,94,0.06,,,0.14,VWS V14.01,2013-06-23 16:00:00,
2013-06-23 11:01:00,67.8,66.0,30.00,South,189,0.0,6.0,94,0.06,,-RA,0.14,VWS V14.01,2013-06-23 16:01:00,
2013-06-23 11:02:00,67.8,66.0,30.00,SSW,194,0.0,0.0,94,0.02,,SCT050,0.14,VWS V14.01,2013-06-23 16:02:00,
2013-06-23 11:03:00,67.8,66.0,30.00,SSW,194,0.0,0.0,94,0.02,,SCT050,0.14,VWS V14.01,2013-06-23 16:03:00,
2013-06-23 11:06:00,67.8,66.0,30.00,South,190,0.0,0.0,94,0.02,,SCT050,0.14,VWS V14.01,2013-06-23 16:06:00,
2013-06-23 11:07:00,67.8,66.0,30.00,South,177,0.0,0.0,94,0.02,,SCT050,0.14,VWS V14.01,2013-06-23 16:07:00,
2013-06-23 11:08:00,68.0,66.2,30.00,South,177,0.0,0.0,94,0.02,,SCT050,0.14,VWS V14.01,2013-06-23 16:08:00,
2013-06-23 11:11:00,67.8,66.0,30.00,South,172,0.0,1.0,94,0.02,,SCT050,0.14,VWS V14.01,2013-06-23 16:11:00,
2013-06-23 11:12:00,67.8,66.0,30.00,SSE,167,0.0,1.0,94,0.02,,SCT050,0.14,VWS V14.01,2013-06-23 16:12:00,
2013-06-23 11:13:00,67.8,66.0,30.00,ESE,119,0.0,1.0,94,0.02,,SCT050,0.14,VWS V14.01,2013-06-23 16:13:00,
2013-06-23 11:14:00,67.8,66.0,30.00,South,188,0.0,1.0,94,0.02,,SCT050,0.14,VWS V14.01,2013-06-23 16:14:00,
2013-06-23 11:16:00,67.8,66.0,30.00,South,186,0.0,1.0,94,0.02,,SCT050,0.14,VWS V14.01,2013-06-23 16:16:00,
2013-06-23 11:17:00,67.8,66.0,30.00,SE,138,0.0,1.0,94,0.02,,SCT050,0.14,VWS V14.01,2013-06-23 16:17:00,
2013-06-23 11:18:00,67.8,66.0,30.00,SE,136,0.0,1.0,94,0.02,,SCT050,0.14,VWS V14.01,2013-06-23 16:18:00,
2013-06-23 11:19:00,67.8,66.0,30.00,ESE,122,0.0,1.0,94,0.02,,SCT050,0.14,VWS V14.01,2013-06-23 16:19:00,
2013-06-23 11:21:00,67.8,66.0,30.00,ESE,120,0.0,1.0,94,0.02,,SCT050,0.14,VWS V14.01,2013-06-23 16:21:00,
2013-06-23 11:22:00,67.8,66.0,30.00,ESE,120,0.0,1.0,94,0.03,,SCT050,0.15,VWS V14.01,2013-06-23 16:22:00,
2013-06-23 11:23:00,67.8,66.0,30.00,ESE,120,0.0,1.0,94,0.03,,SCT050,0.15,VWS V14.01,2013-06-23 16:23:00,
2013-06-23 11:24:00,67.8,66.0,30.00,ESE,120,0.0,1.0,94,0.03,,SCT050,0.15,VWS V14.01,2013-06-23 16:24:00,
2013-06-23 11:26:00,67.8,66.0,30.00,ESE,120,0.0,1.0,94,0.03,,SCT050,0.15,VWS V14.01,2013-06-23 16:26:00,
2013-06-23 11:28:00,67.8,66.0,30.00,ESE,120,0.0,1.0,94,0.03,,SCT050,0.15,VWS V14.01,2013-06-23 16:28:00,
2013-06-23 11:29:00,67.8,66.0,30.00,ESE,120,0.0,1.0,94,0.03,,SCT050,0.15,VWS V14.01,2013-06-23 16:29:00,
2013-06-23 11:30:00,68.0,66.2,30.00,SE,140,0.0,1.0,94,0.03,,,0.15,VWS V14.01,2013-06-23 16:30:00,
2013-06-23 11:32:00,68.0,66.2,30.00,SE,140,0.0,0.0,94,0.01,,SCT050,0.15,VWS V14.01,2013-06-23 16:32:00,
2013-06-23 11:33:00,68.0,66.2,30.00,SE,140,0.0,0.0,94,0.01,,SCT050,0.15,VWS V14.01,2013-06-23 16:33:00,
2013-06-23 11:34:00,68.2,66.4,30.00,SE,140,0.0,0.0,94,0.01,,SCT050,0.15,VWS V14.01,2013-06-23 16:34:00,
2013-06-23 11:35:00,68.2,66.4,30.00,SE,125,0.0,0.0,94,0.01,,SCT050,0.15,VWS V14.01,2013-06-23 16:35:00,
2013-06-23 11:38:00,68.2,66.4,30.00,South,180,0.0,0.0,94,0.01,,SCT050,0.15,VWS V14.01,2013-06-23 16:38:00,
2013-06-23 11:39:00,68.2,66.4,30.00,South,184,0.0,0.0,94,0.01,,SCT050,0.15,VWS V14.01,2013-06-23 16:39:00,
2013-06-23 11:40:00,68.2,66.4,30.00,SSE,164,0.0,1.0,94,0.01,,SCT050,0.15,VWS V14.01,2013-06-23 16:40:00,
2013-06-23 11:41:00,68.3,66.5,30.00,SE,130,2.0,4.0,94,0.01,,SCT050,0.15,VWS V14.01,2013-06-23 16:41:00,
2013-06-23 11:43:00,68.3,66.5,30.00,SSE,148,0.0,4.0,94,0.01,,SCT050,0.15,VWS V14.01,2013-06-23 16:43:00,
2013-06-23 11:44:00,68.3,66.5,30.00,SE,144,0.0,4.0,94,0.01,,SCT050,0.15,VWS V14.01,2013-06-23 16:44:00,
2013-06-23 11:45:00,68.3,66.5,30.00,SE,132,1.0,5.0,94,0.01,,SCT050,0.15,VWS V14.01,2013-06-23 16:45:00,
2013-06-23 11:46:00,68.3,66.5,30.00,SSW,195,1.0,5.0,94,0.01,,CLR,0.15,VWS V14.01,2013-06-23 16:46:00,
2013-06-23 11:49:00,68.3,66.5,30.00,South,185,0.0,5.0,94,0.02,,CLR,0.16,VWS V14.01,2013-06-23 16:49:00,
2013-06-23 11:50:00,68.3,66.5,30.00,SSE,164,0.0,5.0,94,0.02,,CLR,0.16,VWS V14.01,2013-06-23 16:50:00,
2013-06-23 11:51:00,68.3,66.5,30.00,South,180,0.0,5.0,94,0.02,,CLR,0.16,VWS V14.01,2013-06-23 16:51:00,
2013-06-23 11:54:00,68.5,66.7,30.00,South,179,2.0,6.0,94,0.02,,CLR,0.16,VWS V14.01,2013-06-23 16:54:00,
2013-06-23 11:55:00,68.5,66.7,30.00,SSE,167,0.0,6.0,94,0.02,,CLR,0.16,VWS V14.01,2013-06-23 16:55:00,
2013-06-23 11:56:00,68.5,66.7,30.00,South,169,0.0,6.0,94,0.02,,CLR,0.16,VWS V14.01,2013-06-23 16:56:00,
2013-06-23 11:57:00,68.5,66.7,30.00,South,180,0.0,6.0,94,0.02,,CLR,0.16,VWS V14.01,2013-06-23 16:57:00,
2013-06-23 12:00:00,68.7,66.9,30.01,SSE,153,0.0,6.0,94,0.02,,,0.16,VWS V14.01,2013-06-23 17:00:00,
2013-06-23 12:02:00,68.7,66.9,30.01,SSW,200,0.0,0.0,94,0.02,,-RA,0.16,VWS V14.01,2013-06-23 17:02:00,
2013-06-23 12:03:00,68.8,67.0,30.01,SSW,200,0.0,0.0,94,0.02,,-RA,0.16,VWS V14.01,2013-06-23 17:03:00,
2013-06-23 12:08:00,69.0,67.2,30.01,SE,144,0.0,4.0,94,0.02,,-RA,0.16,VWS V14.01,2013-06-23 17:08:00,
2013-06-23 12:13:00,69.2,67.4,30.01,SSE,160,0.0,5.0,94,0.02,,-RA,0.16,VWS V14.01,2013-06-23 17:13:00,
2013-06-23 12:18:00,69.3,67.5,30.00,SSE,161,0.0,5.0,94,0.02,,-RA,0.16,VWS V14.01,2013-06-23 17:18:00,
2013-06-23 12:23:00,69.5,67.7,30.00,SSW,198,0.0,9.0,94,0.02,,-RA,0.16,VWS V14.01,2013-06-23 17:23:00,
2013-06-23 12:24:00,69.5,67.7,30.00,South,187,0.0,9.0,94,0.02,,-RA,0.16,VWS V14.01,2013-06-23 17:24:00,
2013-06-23 12:28:00,69.7,67.9,30.00,South,189,0.0,11.0,94,0.02,,-RA,0.16,VWS V14.01,2013-06-23 17:28:00,
2013-06-23 12:29:00,69.7,67.9,30.00,South,183,0.0,11.0,94,0.02,,-RA,0.16,VWS V14.01,2013-06-23 17:29:00,
2013-06-23 12:30:00,69.7,67.9,30.00,South,188,1.0,11.0,94,0.02,,,0.16,VWS V14.01,2013-06-23 17:30:00,
2013-06-23 12:33:00,69.8,68.0,30.00,SE,142,0.0,3.0,94,0.01,,-RA,0.16,VWS V14.01,2013-06-23 17:33:00,
2013-06-23 12:34:00,69.8,68.0,30.00,South,189,0.0,3.0,94,0.01,,-RA,0.16,VWS V14.01,2013-06-23 17:34:00,
2013-06-23 12:35:00,69.8,68.0,30.00,South,190,0.0,7.0,94,0.01,,-RA,0.16,VWS V14.01,2013-06-23 17:35:00,
2013-06-23 12:39:00,70.0,68.2,30.00,SE,146,0.0,7.0,94,0.01,,-RA,0.16,VWS V14.01,2013-06-23 17:39:00,
2013-06-23 12:40:00,70.0,68.2,30.00,South,187,0.0,7.0,94,0.01,,-RA,0.16,VWS V14.01,2013-06-23 17:40:00,
2013-06-23 12:44:00,70.0,68.2,30.00,South,173,0.0,9.0,94,0.01,,-RA,0.16,VWS V14.01,2013-06-23 17:44:00,
2013-06-23 12:45:00,70.0,68.2,30.00,South,180,0.0,9.0,94,0.01,,-RA,0.16,VWS V14.01,2013-06-23 17:45:00,
2013-06-23 12:49:00,70.0,68.2,30.00,South,182,0.0,9.0,94,0.01,,-RA,0.16,VWS V14.01,2013-06-23 17:49:00,
2013-06-23 12:50:00,70.0,68.2,30.00,South,182,0.0,10.0,94,0.01,,-RA,0.16,VWS V14.01,2013-06-23 17:50:00,
2013-06-23 12:54:00,70.3,68.5,30.00,SSE,163,0.0,10.0,94,0.01,,-RA,0.16,VWS V14.01,2013-06-23 17:54:00,
2013-06-23 12:55:00,70.3,68.5,30.00,SSE,149,0.0,10.0,94,0.01,,-RA,0.16,VWS V14.01,2013-06-23 17:55:00,
2013-06-23 12:59:00,70.7,68.9,30.00,ESE,123,7.0,10.0,94,0.01,,-RA,0.16,VWS V14.01,2013-06-23 17:59:00,
2013-06-23 13:00:00,70.7,68.9,30.00,SSW,195,0.0,10.0,94,0.01,,-RA,0.16,VWS V14.01,2013-06-23 18:00:00,
2013-06-23 13:01:00,70.7,68.9,30.00,SSW,198,0.0,0.0,94,0.00,,-RA,0.16,VWS V14.01,2013-06-23 18:01:00,
2013-06-23 13:04:00,71.2,69.4,30.00,South,176,0.0,1.0,94,0.00,,SCT060,0.16,VWS V14.01,2013-06-23 18:04:00,
2013-06-23 13:05:00,71.2,69.4,30.00,SSW,202,3.0,6.0,94,0.00,,SCT060,0.16,VWS V14.01,2013-06-23 18:05:00,
2013-06-23 13:06:00,71.2,69.4,30.00,SE,140,0.0,6.0,94,0.00,,SCT060,0.16,VWS V14.01,2013-06-23 18:06:00,
2013-06-23 13:09:00,71.7,69.9,30.00,SSW,198,4.0,6.0,94,0.00,,SCT060,0.16,VWS V14.01,2013-06-23 18:09:00,
2013-06-23 13:10:00,71.9,70.1,30.00,SE,133,0.0,6.0,94,0.00,,SCT060,0.16,VWS V14.01,2013-06-23 18:10:00,
2013-06-23 13:11:00,72.0,70.2,30.00,SE,140,0.0,6.0,94,0.00,,SCT060,0.16,VWS V14.01,2013-06-23 18:11:00,
2013-06-23 13:14:00,72.4,70.6,30.00,South,171,6.0,9.0,94,0.00,,SCT060,0.16,VWS V14.01,2013-06-23 18:14:00,
2013-06-23 13:16:00,72.4,70.3,30.00,SSW,195,0.0,9.0,93,0.00,,SCT060,0.16,VWS V14.01,2013-06-23 18:16:00,
2013-06-23 13:20:00,72.7,70.2,30.00,SE,136,0.0,9.0,92,0.00,,SCT060,0.16,VWS V14.01,2013-06-23 18:20:00,
2013-06-23 13:21:00,72.7,70.2,30.00,SSW,207,7.0,9.0,92,0.00,,SCT060,0.16,VWS V14.01,2013-06-23 18:21:00,
2013-06-23 13:25:00,72.9,70.4,30.00,SW,219,3.0,14.0,92,0.00,,SCT060,0.16,VWS V14.01,2013-06-23 18:25:00,
2013-06-23 13:26:00,72.9,70.1,30.00,South,175,4.0,14.0,91,0.00,,SCT060,0.16,VWS V14.01,2013-06-23 18:26:00,
2013-06-23 13:30:00,73.4,70.9,29.99,South,169,7.0,14.0,92,0.00,,SCT060,0.16,VWS V14.01,2013-06-23 18:30:00,
2013-06-23 13:31:00,73.4,70.6,29.99,SE,138,6.0,6.0,91,0.00,,SCT060,0.16,VWS V14.01,2013-06-23 18:31:00,
2013-06-23 13:32:00,73.4,70.3,29.99,SE,136,0.0,9.0,90,0.00,,SCT060,0.16,VWS V14.01,2013-06-23 18:32:00,
2013-06-23 13:35:00,73.2,70.1,29.99,SE,144,6.0,12.0,90,0.00,,SCT060,0.16,VWS V14.01,2013-06-23 18:35:00,
2013-06-23 13:36:00,73.1,69.7,29.99,SSE,162,0.0,12.0,89,0.00,,SCT060,0.16,VWS V14.01,2013-06-23 18:36:00,
2013-06-23 13:37:00,73.2,70.1,29.99,ESE,109,9.0,12.0,90,0.00,,SCT060,0.16,VWS V14.01,2013-06-23 18:37:00,
2013-06-23 13:40:00,73.1,69.3,29.99,East,86,4.0,18.0,88,0.00,,SCT060,0.16,VWS V14.01,2013-06-23 18:40:00,
2013-06-23 13:41:00,72.9,69.1,29.99,SE,126,2.0,18.0,88,0.00,,SCT060,0.16,VWS V14.01,2013-06-23 18:41:00,
2013-06-23 13:42:00,72.9,69.1,29.99,ESE,123,4.0,18.0,88,0.00,,SCT060,0.16,VWS V14.01,2013-06-23 18:42:00,
2013-06-23 13:45:00,73.2,69.4,29.99,East,80,5.0,18.0,88,0.00,,CLR,0.16,VWS V14.01,2013-06-23 18:45:00,
2013-06-23 13:46:00,73.2,69.4,29.99,SSW,210,0.0,18.0,88,0.00,,CLR,0.16,VWS V14.01,2013-06-23 18:46:00,
2013-06-23 13:47:00,73.4,69.6,29.99,SE,140,0.0,18.0,88,0.00,,CLR,0.16,VWS V14.01,2013-06-23 18:47:00,
2013-06-23 13:50:00,73.9,70.1,29.99,SE,134,3.0,18.0,88,0.00,,CLR,0.16,VWS V14.01,2013-06-23 18:50:00,
2013-06-23 13:51:00,73.9,69.8,29.99,ESE,105,2.0,18.0,87,0.00,,CLR,0.16,VWS V14.01,2013-06-23 18:51:00,
2013-06-23 13:52:00,73.8,69.7,29.99,South,174,3.0,18.0,87,0.00,,CLR,0.16,VWS V14.01,2013-06-23 18:52:00,
2013-06-23 13:53:00,73.8,69.7,29.99,East,86,13.0,18.0,87,0.00,,CLR,0.16,VWS V14.01,2013-06-23 18:53:00,
2013-06-23 13:56:00,73.8,69.3,29.99,SSE,165,3.0,18.0,86,0.00,,CLR,0.16,VWS V14.01,2013-06-23 18:56:00,
2013-06-23 13:57:00,73.6,69.2,29.99,East,80,1.0,18.0,86,0.00,,CLR,0.16,VWS V14.01,2013-06-23 18:57:00,
2013-06-23 13:58:00,73.6,69.2,29.99,SSW,193,2.0,18.0,86,0.00,,CLR,0.16,VWS V14.01,2013-06-23 18:58:00,
2013-06-23 14:00:00,73.8,69.0,30.00,SSE,153,1.0,18.0,85,0.00,,,0.16,VWS V14.01,2013-06-23 19:00:00,
2013-06-23 14:01:00,73.8,69.0,30.00,East,96,1.0,9.0,85,0.00,,SCT120,0.16,VWS V14.01,2013-06-23 19:01:00,
2013-06-23 14:02:00,73.6,68.5,30.00,ESE,120,11.0,12.0,84,0.00,,SCT120,0.16,VWS V14.01,2013-06-23 19:02:00,
2013-06-23 14:03:00,73.2,67.7,30.00,SE,132,3.0,12.0,83,0.00,,SCT120,0.16,VWS V14.01,2013-06-23 19:03:00,
2013-06-23 14:06:00,73.2,68.1,30.00,SE,128,0.0,12.0,84,0.00,,SCT120,0.16,VWS V14.01,2013-06-23 19:06:00,
2013-06-23 14:07:00,73.1,68.3,30.00,SSE,152,7.0,12.0,85,0.00,,SCT120,0.16,VWS V14.01,2013-06-23 19:07:00,
2013-06-23 14:08:00,73.1,68.0,30.00,SSE,166,1.0,12.0,84,0.00,,SCT120,0.16,VWS V14.01,2013-06-23 19:08:00,
2013-06-23 14:11:00,72.7,67.6,30.00,SW,221,1.0,12.0,84,0.00,,SCT120,0.16,VWS V14.01,2013-06-23 19:11:00,
2013-06-23 14:12:00,72.9,68.1,30.00,SE,128,6.0,12.0,85,0.00,,SCT120,0.16,VWS V14.01,2013-06-23 19:12:00,
2013-06-23 14:13:00,72.9,67.8,30.00,SSW,208,0.0,12.0,84,0.00,,SCT120,0.16,VWS V14.01,2013-06-23 19:13:00,
2013-06-23 14:16:00,73.2,68.1,29.99,South,184,1.0,14.0,84,0.00,,SCT120,0.16,VWS V14.01,2013-06-23 19:16:00,
2013-06-23 14:17:00,73.4,68.3,29.99,South,191,3.0,14.0,84,0.00,,SCT120,0.16,VWS V14.01,2013-06-23 19:17:00,
2013-06-23 14:18:00,73.4,68.3,29.99,South,186,1.0,14.0,84,0.00,,SCT120,0.16,VWS V14.01,2013-06-23 19:18:00,
2013-06-23 14:19:00,73.6,68.5,29.99,SE,144,0.0,14.0,84,0.00,,SCT120,0.16,VWS V14.01,2013-06-23 19:19:00,
2013-06-23 14:21:00,73.9,68.1,29.99,ESE,109,0.0,18.0,82,0.00,,SCT120,0.16,VWS V14.01,2013-06-23 19:21:00,
2013-06-23 14:22:00,73.9,68.4,29.99,ESE,106,4.0,18.0,83,0.00,,SCT120,0.16,VWS V14.01,2013-06-23 19:22:00,
2013-06-23 14:23:00,74.1,68.6,29.99,ESE,105,0.0,18.0,83,0.00,,SCT120,0.16,VWS V14.01,2013-06-23 19:23:00,
2013-06-23 14:24:00,74.1,68.3,29.99,ESE,120,0.0,18.0,82,0.00,,SCT120,0.16,VWS V14.01,2013-06-23 19:24:00,
2013-06-23 14:26:00,74.5,69.0,29.99,ESE,118,0.0,18.0,83,0.00,,SCT120,0.16,VWS V14.01,2013-06-23 19:26:00,
2013-06-23 14:27:00,74.6,69.1,29.99,SE,128,4.0,18.0,83,0.00,,SCT120,0.16,VWS V14.01,2013-06-23 19:27:00,
2013-06-23 14:29:00,74.8,68.9,29.99,ESE,115,2.0,18.0,82,0.00,,SCT120,0.16,VWS V14.01,2013-06-23 19:29:00,
2013-06-23 14:30:00,74.8,68.6,29.98,SSE,157,6.0,18.0,81,0.00,,,0.16,VWS V14.01,2013-06-23 19:30:00,
2013-06-23 14:31:00,74.8,68.9,29.98,South,186,4.0,6.0,82,0.00,,SCT120,0.16,VWS V14.01,2013-06-23 19:31:00,
2013-06-23 14:32:00,74.8,68.6,29.98,ESE,102,6.0,7.0,81,0.00,,SCT120,0.16,VWS V14.01,2013-06-23 19:32:00,
2013-06-23 14:34:00,74.8,68.6,29.98,SSE,152,6.0,11.0,81,0.00,,SCT120,0.16,VWS V14.01,2013-06-23 19:34:00,
2013-06-23 14:37:00,74.5,68.3,29.98,SSW,212,6.0,11.0,81,0.00,,SCT120,0.16,VWS V14.01,2013-06-23 19:37:00,
2013-06-23 14:38:00,74.3,68.1,29.98,South,190,4.0,11.0,81,0.00,,SCT120,0.16,VWS V14.01,2013-06-23 19:38:00,
2013-06-23 14:39:00,74.3,68.1,29.98,East,95,0.0,11.0,81,0.00,,SCT120,0.16,VWS V14.01,2013-06-23 19:39:00,
2013-06-23 14:42:00,74.5,68.7,29.98,SE,130,0.0,11.0,82,0.00,,SCT120,0.16,VWS V14.01,2013-06-23 19:42:00,
2013-06-23 14:43:00,74.6,69.1,29.98,SSW,198,3.0,11.0,83,0.00,,SCT120,0.16,VWS V14.01,2013-06-23 19:43:00,
2013-06-23 14:44:00,74.6,69.1,29.98,SSW,192,1.0,11.0,83,0.00,,SCT120,0.16,VWS V14.01,2013-06-23 19:44:00,
2013-06-23 14:45:00,74.6,68.8,29.96,South,180,13.0,16.0,82,0.00,,SCT120,0.16,VWS V14.01,2013-06-23 19:45:00,
2013-06-23 14:47:00,74.6,69.1,29.96,SE,137,2.0,16.0,83,0.00,,SCT009,0.16,VWS V14.01,2013-06-23 19:47:00,
2013-06-23 14:48:00,74.6,68.8,29.96,South,176,5.0,16.0,82,0.00,,SCT009,0.16,VWS V14.01,2013-06-23 19:48:00,
2013-06-23 14:49:00,74.5,68.7,29.96,South,188,2.0,16.0,82,0.00,,SCT009,0.16,VWS V14.01,2013-06-23 19:49:00,
2013-06-23 14:50:00,74.5,68.7,29.96,SSW,196,5.0,16.0,82,0.00,,SCT009,0.16,VWS V14.01,2013-06-23 19:50:00,
2013-06-23 14:52:00,74.3,68.4,29.96,SE,134,0.0,16.0,82,0.00,,SCT009,0.16,VWS V14.01,2013-06-23 19:52:00,
2013-06-23 14:54:00,74.3,68.8,29.96,East,79,5.0,16.0,83,0.00,,SCT009,0.16,VWS V14.01,2013-06-23 19:54:00,
2013-06-23 14:55:00,74.5,69.0,29.96,SSE,149,0.0,16.0,83,0.00,,SCT009,0.16,VWS V14.01,2013-06-23 19:55:00,
2013-06-23 14:57:00,74.6,69.4,29.96,SE,140,4.0,16.0,84,0.00,,SCT009,0.16,VWS V14.01,2013-06-23 19:57:00,
2013-06-23 14:59:00,75.0,69.8,29.96,South,186,3.0,16.0,84,0.00,,SCT009,0.16,VWS V14.01,2013-06-23 19:59:00,
2013-06-23 15:00:00,75.2,69.7,29.95,South,183,0.0,16.0,83,0.00,,SCT009,0.16,VWS V14.01,2013-06-23 20:00:00,
2013-06-23 15:02:00,75.2,69.3,29.95,South,190,1.0,7.0,82,0.00,,SCT009,0.16,VWS V14.01,2013-06-23 20:02:00,
2013-06-23 15:03:00,75.2,69.3,29.95,South,169,0.0,7.0,82,0.00,,SCT009,0.16,VWS V14.01,2013-06-23 20:03:00,
2013-06-23 15:04:00,75.3,69.4,29.95,SE,138,5.0,7.0,82,0.00,,SCT009,0.16,VWS V14.01,2013-06-23 20:04:00,
2013-06-23 15:05:00,75.3,69.4,29.95,SSW,192,0.0,7.0,82,0.00,,SCT009,0.16,VWS V14.01,2013-06-23 20:05:00,
2013-06-23 15:08:00,75.5,69.6,29.95,South,175,4.0,9.0,82,0.00,,SCT009,0.16,VWS V14.01,2013-06-23 20:08:00,
2013-06-23 15:09:00,75.7,69.5,29.95,SSW,200,2.0,10.0,81,0.00,,SCT009,0.16,VWS V14.01,2013-06-23 20:09:00,
2013-06-23 15:10:00,75.7,69.5,29.95,ESE,104,0.0,10.0,81,0.00,,SCT009,0.16,VWS V14.01,2013-06-23 20:10:00,
2013-06-23 15:13:00,75.9,69.7,29.95,SE,130,9.0,10.0,81,0.00,,SCT009,0.16,VWS V14.01,2013-06-23 20:13:00,
2013-06-23 15:14:00,75.9,69.7,29.95,ENE,76,3.0,10.0,81,0.00,,SCT009,0.16,VWS V14.01,2013-06-23 20:14:00,
2013-06-23 15:15:00,75.7,69.5,29.95,SE,128,7.0,10.0,81,0.00,,SCT009,0.16,VWS V14.01,2013-06-23 20:15:00,
2013-06-23 15:18:00,75.7,69.5,29.95,SE,140,5.0,10.0,81,0.00,,SCT009,0.16,VWS V14.01,2013-06-23 20:18:00,
2013-06-23 15:19:00,75.5,69.3,29.95,ESE,113,3.0,10.0,81,0.00,,SCT009,0.16,VWS V14.01,2013-06-23 20:19:00,
2013-06-23 15:20:00,75.5,69.3,29.95,SSW,211,3.0,10.0,81,0.00,,SCT009,0.16,VWS V14.01,2013-06-23 20:20:00,
2013-06-23 15:23:00,75.7,69.5,29.95,SSW,201,3.0,10.0,81,0.00,,SCT009,0.16,VWS V14.01,2013-06-23 20:23:00,
2013-06-23 15:24:00,75.7,69.5,29.95,SSW,198,0.0,10.0,81,0.00,,SCT009,0.16,VWS V14.01,2013-06-23 20:24:00,
2013-06-23 15:25:00,75.9,69.7,29.95,ESE,117,0.0,10.0,81,0.00,,SCT009,0.16,VWS V14.01,2013-06-23 20:25:00,
2013-06-23 15:29:00,76.2,69.9,29.95,South,182,0.0,10.0,81,0.00,,SCT009,0.16,VWS V14.01,2013-06-23 20:29:00,
2013-06-23 15:30:00,76.2,69.9,29.94,SSW,211,2.0,10.0,81,0.00,,SCT009,0.16,VWS V14.01,2013-06-23 20:30:00,
2013-06-23 15:34:00,76.4,69.4,29.94,SSE,163,0.0,11.0,79,0.00,,CLR,0.16,VWS V14.01,2013-06-23 20:34:00,
2013-06-23 15:35:00,76.2,69.6,29.94,SSE,167,2.0,11.0,80,0.00,,CLR,0.16,VWS V14.01,2013-06-23 20:35:00,
2013-06-23 15:39:00,76.6,70.0,29.94,ESE,111,0.0,11.0,80,0.00,,CLR,0.16,VWS V14.01,2013-06-23 20:39:00,
2013-06-23 15:40:00,76.6,69.6,29.94,South,170,0.0,11.0,79,0.00,,CLR,0.16,VWS V14.01,2013-06-23 20:40:00,
2013-06-23 15:41:00,76.6,69.6,29.94,SSE,150,0.0,11.0,79,0.00,,CLR,0.16,VWS V14.01,2013-06-23 20:41:00,
2013-06-23 15:44:00,76.7,70.1,29.94,SSE,155,0.0,11.0,80,0.00,,CLR,0.16,VWS V14.01,2013-06-23 20:44:00,
2013-06-23 15:45:00,76.7,69.7,29.95,ESE,118,0.0,11.0,79,0.00,,CLR,0.16,VWS V14.01,2013-06-23 20:45:00,
2013-06-23 15:46:00,76.9,70.3,29.95,SSW,206,0.0,11.0,80,0.00,,CLR,0.16,VWS V14.01,2013-06-23 20:46:00,
2013-06-23 15:49:00,76.9,69.9,29.95,South,173,0.0,11.0,79,0.00,,CLR,0.16,VWS V14.01,2013-06-23 20:49:00,
2013-06-23 15:50:00,77.1,70.5,29.95,SSW,211,0.0,11.0,80,0.00,,CLR,0.16,VWS V14.01,2013-06-23 20:50:00,
2013-06-23 15:51:00,77.1,70.5,29.95,South,169,0.0,11.0,80,0.00,,CLR,0.16,VWS V14.01,2013-06-23 20:51:00,
2013-06-23 15:55:00,77.6,70.9,29.95,East,90,5.0,11.0,80,0.00,,CLR,0.16,VWS V14.01,2013-06-23 20:55:00,
2013-06-23 15:56:00,77.8,70.4,29.95,South,175,3.0,11.0,78,0.00,,CLR,0.16,VWS V14.01,2013-06-23 20:56:00,
2013-06-23 16:00:00,77.6,69.8,29.93,SE,125,0.0,11.0,77,0.00,,CLR,0.16,VWS V14.01,2013-06-23 21:00:00,
2013-06-23 16:01:00,77.6,70.6,29.93,SSE,166,4.0,5.0,79,0.00,,CLR,0.16,VWS V14.01,2013-06-23 21:01:00,
2013-06-23 16:05:00,77.3,69.9,29.93,South,180,0.0,10.0,78,0.00,,CLR,0.16,VWS V14.01,2013-06-23 21:05:00,
2013-06-23 16:06:00,77.3,69.9,29.93,ESE,122,0.0,10.0,78,0.00,,CLR,0.16,VWS V14.01,2013-06-23 21:06:00,
2013-06-23 16:07:00,77.5,70.5,29.93,South,185,0.0,10.0,79,0.00,,CLR,0.16,VWS V14.01,2013-06-23 21:07:00,
2013-06-23 16:10:00,77.3,69.9,29.93,SW,217,0.0,10.0,78,0.00,,CLR,0.16,VWS V14.01,2013-06-23 21:10:00,
2013-06-23 16:11:00,77.3,69.9,29.93,South,180,0.0,10.0,78,0.00,,CLR,0.16,VWS V14.01,2013-06-23 21:11:00,
2013-06-23 16:12:00,77.5,70.5,29.93,SSW,200,3.0,10.0,79,0.00,,CLR,0.16,VWS V14.01,2013-06-23 21:12:00,
2013-06-23 16:15:00,77.5,70.5,29.93,SE,130,0.0,10.0,79,0.00,,CLR,0.16,VWS V14.01,2013-06-23 21:15:00,
2013-06-23 16:16:00,77.6,70.6,29.93,ESE,109,0.0,10.0,79,0.00,,CLR,0.16,VWS V14.01,2013-06-23 21:16:00,
2013-06-23 16:17:00,77.6,70.6,29.93,SE,136,0.0,10.0,79,0.00,,CLR,0.16,VWS V14.01,2013-06-23 21:17:00,
2013-06-23 16:20:00,78.0,71.0,29.93,ESE,117,0.0,10.0,79,0.00,,CLR,0.16,VWS V14.01,2013-06-23 21:20:00,
2013-06-23 16:21:00,78.0,71.0,29.93,SE,142,3.0,10.0,79,0.00,,CLR,0.16,VWS V14.01,2013-06-23 21:21:00,
2013-06-23 16:22:00,78.0,70.6,29.93,SE,145,0.0,10.0,78,0.00,,CLR,0.16,VWS V14.01,2013-06-23 21:22:00,
2013-06-23 16:25:00,78.0,70.6,29.93,South,175,0.0,10.0,78,0.00,,CLR,0.16,VWS V14.01,2013-06-23 21:25:00,
2013-06-23 16:26:00,78.0,70.6,29.93,South,174,3.0,10.0,78,0.00,,CLR,0.16,VWS V14.01,2013-06-23 21:26:00,
2013-06-23 16:27:00,77.8,70.4,29.93,SSW,202,0.0,10.0,78,0.00,,CLR,0.16,VWS V14.01,2013-06-23 21:27:00,
2013-06-23 16:30:00,77.8,70.8,29.92,East,96,1.0,10.0,79,0.00,,CLR,0.16,VWS V14.01,2013-06-23 21:30:00,
2013-06-23 16:31:00,78.0,71.0,29.92,ESE,112,0.0,1.0,79,0.00,,CLR,0.16,VWS V14.01,2013-06-23 21:31:00,
2013-06-23 16:32:00,78.0,71.0,29.92,SE,143,2.0,2.0,79,0.00,,CLR,0.16,VWS V14.01,2013-06-23 21:32:00,
2013-06-23 16:33:00,78.0,71.0,29.92,South,180,3.0,5.0,79,0.00,,CLR,0.16,VWS V14.01,2013-06-23 21:33:00,
2013-06-23 16:35:00,78.0,70.6,29.92,SE,135,2.0,7.0,78,0.00,,CLR,0.16,VWS V14.01,2013-06-23 21:35:00,
2013-06-23 16:36:00,78.0,71.0,29.92,SSW,203,0.0,7.0,79,0.00,,CLR,0.16,VWS V14.01,2013-06-23 21:36:00,
2013-06-23 16:37:00,78.0,71.0,29.92,ESE,109,0.0,7.0,79,0.00,,CLR,0.16,VWS V14.01,2013-06-23 21:37:00,
2013-06-23 16:38:00,78.0,71.0,29.92,SSW,202,0.0,7.0,79,0.00,,CLR,0.16,VWS V14.01,2013-06-23 21:38:00,
2013-06-23 16:40:00,78.0,71.0,29.92,East,91,0.0,11.0,79,0.00,,CLR,0.16,VWS V14.01,2013-06-23 21:40:00,
2013-06-23 16:41:00,78.0,71.3,29.92,South,180,5.0,11.0,80,0.00,,CLR,0.16,VWS V14.01,2013-06-23 21:41:00,
2013-06-23 16:42:00,78.0,71.3,29.92,SE,142,2.0,11.0,80,0.00,,CLR,0.16,VWS V14.01,2013-06-23 21:42:00,
2013-06-23 16:43:00,78.0,71.0,29.92,ESE,120,0.0,11.0,79,0.00,,CLR,0.16,VWS V14.01,2013-06-23 21:43:00,
2013-06-23 16:46:00,78.0,71.0,29.92,SE,139,0.0,11.0,79,0.00,,CLR,0.16,VWS V14.01,2013-06-23 21:46:00,
2013-06-23 16:47:00,78.0,71.0,29.92,ESE,121,0.0,11.0,79,0.00,,CLR,0.16,VWS V14.01,2013-06-23 21:47:00,
2013-06-23 16:48:00,78.0,71.0,29.92,SE,142,0.0,11.0,79,0.00,,CLR,0.16,VWS V14.01,2013-06-23 21:48:00,
2013-06-23 16:51:00,77.8,71.1,29.92,ESE,108,0.0,11.0,80,0.00,,CLR,0.16,VWS V14.01,2013-06-23 21:51:00,
2013-06-23 16:52:00,77.8,71.1,29.92,ESE,121,0.0,11.0,80,0.00,,CLR,0.16,VWS V14.01,2013-06-23 21:52:00,
2013-06-23 16:53:00,77.8,71.1,29.92,South,185,6.0,11.0,80,0.00,,CLR,0.16,VWS V14.01,2013-06-23 21:53:00,
2013-06-23 16:56:00,77.6,70.9,29.92,SSE,150,0.0,11.0,80,0.00,,CLR,0.16,VWS V14.01,2013-06-23 21:56:00,
2013-06-23 16:57:00,77.6,70.9,29.92,South,189,0.0,11.0,80,0.00,,CLR,0.16,VWS V14.01,2013-06-23 21:57:00,
2013-06-23 16:58:00,77.6,70.6,29.92,South,180,0.0,11.0,79,0.00,,CLR,0.16,VWS V14.01,2013-06-23 21:58:00,
2013-06-23 17:00:00,77.5,70.8,29.92,SSW,203,3.0,11.0,80,0.00,,,0.16,VWS V14.01,2013-06-23 22:00:00,
2013-06-23 17:01:00,77.5,70.8,29.92,South,171,0.0,3.0,80,0.00,,CLR,0.16,VWS V14.01,2013-06-23 22:01:00,
2013-06-23 17:02:00,77.5,70.8,29.92,South,182,0.0,5.0,80,0.00,,CLR,0.16,VWS V14.01,2013-06-23 22:02:00,
2013-06-23 17:03:00,77.5,70.8,29.92,SE,140,0.0,5.0,80,0.00,,CLR,0.16,VWS V14.01,2013-06-23 22:03:00,
2013-06-23 17:06:00,77.5,70.8,29.92,South,188,0.0,5.0,80,0.00,,CLR,0.16,VWS V14.01,2013-06-23 22:06:00,
2013-06-23 17:07:00,77.5,70.8,29.92,SSW,192,0.0,5.0,80,0.00,,CLR,0.16,VWS V14.01,2013-06-23 22:07:00,
2013-06-23 17:08:00,77.5,70.8,29.92,South,191,0.0,5.0,80,0.00,,CLR,0.16,VWS V14.01,2013-06-23 22:08:00,
2013-06-23 17:11:00,77.5,70.8,29.92,SSW,194,4.0,6.0,80,0.00,,CLR,0.16,VWS V14.01,2013-06-23 22:11:00,
2013-06-23 17:12:00,77.6,70.9,29.92,SSW,200,5.0,6.0,80,0.00,,CLR,0.16,VWS V14.01,2013-06-23 22:12:00,
2013-06-23 17:13:00,77.6,70.9,29.92,SSW,198,0.0,6.0,80,0.00,,CLR,0.16,VWS V14.01,2013-06-23 22:13:00,
2013-06-23 17:17:00,77.6,70.9,29.93,South,173,0.0,6.0,80,0.00,,CLR,0.16,VWS V14.01,2013-06-23 22:17:00,
2013-06-23 17:18:00,77.6,70.9,29.93,East,89,0.0,6.0,80,0.00,,CLR,0.16,VWS V14.01,2013-06-23 22:18:00,
2013-06-23 17:22:00,77.6,70.9,29.93,SE,143,0.0,6.0,80,0.00,,CLR,0.16,VWS V14.01,2013-06-23 22:22:00,
2013-06-23 17:23:00,77.6,70.9,29.93,SE,146,0.0,6.0,80,0.00,,CLR,0.16,VWS V14.01,2013-06-23 22:23:00,
2013-06-23 17:24:00,77.6,70.9,29.93,SSW,203,0.0,6.0,80,0.00,,CLR,0.16,VWS V14.01,2013-06-23 22:24:00,
2013-06-23 17:27:00,77.5,71.2,29.93,South,182,0.0,6.0,81,0.00,,CLR,0.16,VWS V14.01,2013-06-23 22:27:00,
2013-06-23 17:28:00,77.5,71.2,29.93,South,182,0.0,6.0,81,0.00,,CLR,0.16,VWS V14.01,2013-06-23 22:28:00,
2013-06-23 17:29:00,77.6,71.3,29.93,South,182,0.0,6.0,81,0.00,,CLR,0.16,VWS V14.01,2013-06-23 22:29:00,
2013-06-23 17:30:00,77.6,71.3,29.92,SSE,150,0.0,6.0,81,0.00,,,0.16,VWS V14.01,2013-06-23 22:30:00,
2013-06-23 17:32:00,77.5,71.2,29.92,South,189,0.0,1.0,81,0.00,,CLR,0.16,VWS V14.01,2013-06-23 22:32:00,
2013-06-23 17:33:00,77.5,71.2,29.92,SSW,202,1.0,1.0,81,0.00,,CLR,0.16,VWS V14.01,2013-06-23 22:33:00,
2013-06-23 17:34:00,77.5,71.2,29.92,South,182,0.0,7.0,81,0.00,,CLR,0.16,VWS V14.01,2013-06-23 22:34:00,
2013-06-23 17:38:00,77.5,71.2,29.92,SSW,211,0.0,7.0,81,0.00,,CLR,0.16,VWS V14.01,2013-06-23 22:38:00,
2013-06-23 17:39:00,77.3,71.0,29.92,SE,132,0.0,7.0,81,0.00,,CLR,0.16,VWS V14.01,2013-06-23 22:39:00,
2013-06-23 17:43:00,77.3,71.0,29.92,SSE,153,0.0,7.0,81,0.00,,CLR,0.16,VWS V14.01,2013-06-23 22:43:00,
2013-06-23 17:44:00,77.3,71.0,29.92,SSE,154,0.0,7.0,81,0.00,,CLR,0.16,VWS V14.01,2013-06-23 22:44:00,
2013-06-23 17:45:00,77.3,71.0,29.93,South,190,3.0,7.0,81,0.00,,CLR,0.16,VWS V14.01,2013-06-23 22:45:00,
2013-06-23 17:48:00,77.3,71.0,29.93,SSW,193,0.0,7.0,81,0.00,,SCT120,0.16,VWS V14.01,2013-06-23 22:48:00,
2013-06-23 17:49:00,77.3,71.0,29.93,SSE,167,0.0,7.0,81,0.00,,SCT120,0.16,VWS V14.01,2013-06-23 22:49:00,
2013-06-23 17:50:00,77.3,71.0,29.93,SSE,167,0.0,7.0,81,0.00,,SCT120,0.16,VWS V14.01,2013-06-23 22:50:00,
2013-06-23 17:53:00,77.3,71.4,29.93,NNW,328,4.0,14.0,82,0.00,,SCT120,0.16,VWS V14.01,2013-06-23 22:53:00,
2013-06-23 17:54:00,77.1,70.5,29.93,NW,324,13.0,16.0,80,0.00,,SCT120,0.16,VWS V14.01,2013-06-23 22:54:00,
2013-06-23 17:55:00,76.6,68.9,29.93,WNW,300,2.0,16.0,77,0.00,,SCT120,0.16,VWS V14.01,2013-06-23 22:55:00,
2013-06-23 17:58:00,75.2,65.2,29.93,NW,321,7.0,23.0,71,0.00,,SCT120,0.16,VWS V14.01,2013-06-23 22:58:00,
2013-06-23 17:59:00,74.8,64.8,29.93,NW,309,16.0,23.0,71,0.00,,SCT120,0.16,VWS V14.01,2013-06-23 22:59:00,
2013-06-23 18:00:00,74.3,64.7,29.98,West,281,5.0,23.0,72,0.00,,SCT120,0.16,VWS V14.01,2013-06-23 23:00:00,
2013-06-23 18:03:00,73.1,63.9,29.98,SW,221,0.0,14.0,73,0.00,,SCT120,0.16,VWS V14.01,2013-06-23 23:03:00,
2013-06-23 18:04:00,72.9,64.5,29.98,NW,315,0.0,14.0,75,0.00,,SCT120,0.16,VWS V14.01,2013-06-23 23:04:00,
2013-06-23 18:05:00,72.6,64.6,29.98,West,273,0.0,14.0,76,0.00,,SCT120,0.16,VWS V14.01,2013-06-23 23:05:00,
2013-06-23 18:08:00,71.7,64.8,29.98,NW,306,4.0,14.0,79,0.01,,SCT120,0.17,VWS V14.01,2013-06-23 23:08:00,
2013-06-23 18:09:00,71.4,64.9,29.98,West,262,2.0,14.0,80,0.01,,SCT120,0.17,VWS V14.01,2013-06-23 23:09:00,
2013-06-23 18:10:00,71.2,64.7,29.98,NW,319,12.0,14.0,80,0.01,,SCT120,0.17,VWS V14.01,2013-06-23 23:10:00,
2013-06-23 18:13:00,69.8,64.4,29.98,NNW,327,3.0,14.0,83,0.02,,SCT120,0.18,VWS V14.01,2013-06-23 23:13:00,
2013-06-23 18:14:00,69.7,64.7,29.98,NW,323,1.0,14.0,84,0.02,,SCT120,0.18,VWS V14.01,2013-06-23 23:14:00,
2013-06-23 18:15:00,69.5,64.5,29.99,WNW,289,5.0,14.0,84,0.02,,SCT120,0.18,VWS V14.01,2013-06-23 23:15:00,
2013-06-23 18:16:00,69.3,64.6,29.99,NNW,339,4.0,14.0,85,0.03,,SCT120,0.19,VWS V14.01,2013-06-23 23:16:00,
2013-06-23 18:18:00,68.8,64.8,29.99,NW,304,6.0,14.0,87,0.06,,SCT120,0.22,VWS V14.01,2013-06-23 23:18:00,
2013-06-23 18:19:00,68.5,64.8,29.99,NW,319,7.0,14.0,88,0.08,,SCT120,0.24,VWS V14.01,2013-06-23 23:19:00,
2013-06-23 18:20:00,68.5,64.8,29.99,NW,306,5.0,14.0,88,0.08,,SCT120,0.24,VWS V14.01,2013-06-23 23:20:00,
2013-06-23 18:21:00,68.2,64.5,29.99,NW,323,10.0,14.0,88,0.09,,SCT120,0.25,VWS V14.01,2013-06-23 23:21:00,
2013-06-23 18:23:00,67.8,64.4,29.99,NNW,327,5.0,14.0,89,0.10,,SCT120,0.26,VWS V14.01,2013-06-23 23:23:00,
2013-06-23 18:25:00,67.7,64.7,29.99,West,281,1.0,14.0,90,0.10,,SCT120,0.26,VWS V14.01,2013-06-23 23:25:00,
2013-06-23 18:26:00,67.7,64.7,29.99,NW,309,0.0,14.0,90,0.10,,SCT120,0.26,VWS V14.01,2013-06-23 23:26:00,
2013-06-23 18:28:00,67.5,64.8,29.99,NW,326,0.0,14.0,91,0.11,,SCT120,0.27,VWS V14.01,2013-06-23 23:28:00,
2013-06-23 18:30:00,67.3,64.6,29.97,NW,324,0.0,14.0,91,0.11,,SCT120,0.27,VWS V14.01,2013-06-23 23:30:00,
2013-06-23 18:31:00,67.3,64.6,29.97,NW,324,0.0,0.0,91,0.11,,OVC050,0.27,VWS V14.01,2013-06-23 23:31:00,
2013-06-23 18:33:00,67.3,64.6,29.97,NW,324,0.0,0.0,91,0.11,,OVC050,0.27,VWS V14.01,2013-06-23 23:33:00,
2013-06-23 18:35:00,67.3,64.9,29.97,NW,324,0.0,0.0,92,0.11,,OVC050,0.27,VWS V14.01,2013-06-23 23:35:00,
2013-06-23 18:36:00,67.3,64.9,29.97,NW,324,0.0,0.0,92,0.11,,OVC050,0.27,VWS V14.01,2013-06-23 23:36:00,
2013-06-23 18:38:00,67.2,64.8,29.97,NW,324,0.0,0.0,92,0.12,,OVC050,0.28,VWS V14.01,2013-06-23 23:38:00,
2013-06-23 18:40:00,67.2,64.8,29.97,NW,324,0.0,0.0,92,0.12,,OVC050,0.28,VWS V14.01,2013-06-23 23:40:00,
2013-06-23 18:41:00,67.2,64.8,29.97,NW,324,0.0,0.0,92,0.12,,OVC050,0.28,VWS V14.01,2013-06-23 23:41:00,
2013-06-23 18:44:00,67.2,64.8,29.97,NW,324,0.0,0.0,92,0.12,,OVC050,0.28,VWS V14.01,2013-06-23 23:44:00,
2013-06-23 18:45:00,67.2,64.8,29.97,NW,324,0.0,0.0,92,0.12,,OVC050,0.28,VWS V14.01,2013-06-23 23:45:00,
2013-06-23 18:46:00,67.0,64.6,29.97,NW,324,0.0,0.0,92,0.12,,OVC018,0.28,VWS V14.01,2013-06-23 23:46:00,
2013-06-23 18:49:00,67.2,64.8,29.97,NW,324,0.0,0.0,92,0.12,,OVC018,0.28,VWS V14.01,2013-06-23 23:49:00,
2013-06-23 18:50:00,67.2,64.8,29.97,NW,324,0.0,0.0,92,0.12,,OVC018,0.28,VWS V14.01,2013-06-23 23:50:00,
2013-06-23 18:51:00,67.2,64.8,29.97,NW,321,0.0,0.0,92,0.12,,OVC018,0.28,VWS V14.01,2013-06-23 23:51:00,
2013-06-23 18:52:00,67.2,64.8,29.97,NW,320,0.0,0.0,92,0.13,,OVC018,0.29,VWS V14.01,2013-06-23 23:52:00,
2013-06-23 18:54:00,67.2,64.8,29.97,SSW,196,0.0,0.0,92,0.13,,OVC018,0.29,VWS V14.01,2013-06-23 23:54:00,
2013-06-23 18:55:00,67.2,64.8,29.97,South,190,0.0,0.0,92,0.13,,OVC018,0.29,VWS V14.01,2013-06-23 23:55:00,
2013-06-23 18:57:00,67.2,64.8,29.97,South,191,0.0,0.0,92,0.13,,OVC018,0.29,VWS V14.01,2013-06-23 23:57:00,
2013-06-23 18:59:00,67.2,65.1,29.97,South,191,0.0,0.0,93,0.13,,OVC018,0.29,VWS V14.01,2013-06-23 23:59:00,
2013-06-23 19:00:00,67.2,65.1,29.97,South,191,0.0,0.0,93,0.13,,OVC018,0.29,VWS V14.01,2013-06-24 00:00:00,
2013-06-23 19:02:00,67.2,65.1,29.97,South,191,0.0,0.0,93,0.13,,OVC049,0.29,VWS V14.01,2013-06-24 00:02:00,
2013-06-23 19:04:00,67.0,64.9,29.97,SE,138,0.0,9.0,93,0.13,,OVC049,0.29,VWS V14.01,2013-06-24 00:04:00,
2013-06-23 19:05:00,67.0,64.9,29.97,SSW,203,0.0,9.0,93,0.13,,OVC049,0.29,VWS V14.01,2013-06-24 00:05:00,
2013-06-23 19:07:00,66.8,64.7,29.97,South,189,1.0,9.0,93,0.13,,OVC049,0.29,VWS V14.01,2013-06-24 00:07:00,
2013-06-23 19:09:00,66.8,64.7,29.97,SSW,193,1.0,9.0,93,0.13,,OVC049,0.29,VWS V14.01,2013-06-24 00:09:00,
2013-06-23 19:10:00,66.7,64.6,29.97,SSW,192,0.0,9.0,93,0.13,,OVC049,0.29,VWS V14.01,2013-06-24 00:10:00,
2013-06-23 19:12:00,66.7,64.6,29.97,SSW,193,0.0,9.0,93,0.13,,OVC049,0.29,VWS V14.01,2013-06-24 00:12:00,
2013-06-23 19:13:00,66.7,64.6,29.97,SSW,193,0.0,9.0,93,0.13,,OVC049,0.29,VWS V14.01,2013-06-24 00:13:00,
2013-06-23 19:14:00,66.7,64.6,29.97,SSW,193,0.0,9.0,93,0.13,,OVC049,0.29,VWS V14.01,2013-06-24 00:14:00,
2013-06-23 19:15:00,66.7,64.6,29.96,SSW,192,0.0,9.0,93,0.13,,OVC049,0.29,VWS V14.01,2013-06-24 00:15:00,
2013-06-23 19:17:00,66.8,64.7,29.96,SSW,192,0.0,9.0,93,0.14,,OVC070,0.30,VWS V14.01,2013-06-24 00:17:00,
2013-06-23 19:18:00,66.8,64.7,29.96,SSW,192,0.0,9.0,93,0.14,,OVC070,0.30,VWS V14.01,2013-06-24 00:18:00,
2013-06-23 19:19:00,66.8,64.7,29.96,SSW,192,0.0,9.0,93,0.14,,OVC070,0.30,VWS V14.01,2013-06-24 00:19:00,
2013-06-23 19:20:00,66.8,65.0,29.96,South,182,0.0,9.0,94,0.14,,OVC070,0.30,VWS V14.01,2013-06-24 00:20:00,
2013-06-23 19:21:00,66.8,65.0,29.96,South,182,0.0,9.0,94,0.14,,OVC070,0.30,VWS V14.01,2013-06-24 00:21:00,
2013-06-23 19:22:00,66.8,65.0,29.96,South,182,0.0,9.0,94,0.14,,OVC070,0.30,VWS V14.01,2013-06-24 00:22:00,
2013-06-23 19:23:00,66.8,65.0,29.96,South,184,0.0,9.0,94,0.14,,OVC070,0.30,VWS V14.01,2013-06-24 00:23:00,
2013-06-23 19:24:00,66.8,65.0,29.96,South,185,0.0,9.0,94,0.14,,OVC070,0.30,VWS V14.01,2013-06-24 00:24:00,
2013-06-23 19:25:00,66.8,65.0,29.96,South,186,0.0,9.0,94,0.14,,OVC070,0.30,VWS V14.01,2013-06-24 00:25:00,
2013-06-23 19:26:00,66.8,65.0,29.96,South,188,0.0,9.0,94,0.14,,OVC070,0.30,VWS V14.01,2013-06-24 00:26:00,
2013-06-23 19:27:00,66.8,65.0,29.96,South,183,0.0,9.0,94,0.14,,OVC070,0.30,VWS V14.01,2013-06-24 00:27:00,
2013-06-23 19:28:00,66.8,65.0,29.96,South,176,0.0,9.0,94,0.14,,OVC070,0.30,VWS V14.01,2013-06-24 00:28:00,
2013-06-23 19:29:00,66.8,65.0,29.96,South,177,0.0,9.0,94,0.14,,OVC070,0.30,VWS V14.01,2013-06-24 00:29:00,
2013-06-23 19:30:00,66.8,65.0,29.97,South,177,0.0,9.0,94,0.14,,,0.30,VWS V14.01,2013-06-24 00:30:00,
2013-06-23 19:31:00,66.8,65.0,29.97,South,177,0.0,0.0,94,0.03,,OVC070,0.30,VWS V14.01,2013-06-24 00:31:00,
2013-06-23 19:32:00,66.8,65.0,29.97,South,177,0.0,0.0,94,0.03,,OVC070,0.30,VWS V14.01,2013-06-24 00:32:00,
2013-06-23 19:33:00,66.8,65.0,29.97,South,177,0.0,0.0,94,0.03,,OVC070,0.30,VWS V14.01,2013-06-24 00:33:00,
2013-06-23 19:34:00,66.8,65.0,29.97,South,177,0.0,0.0,94,0.03,,OVC070,0.30,VWS V14.01,2013-06-24 00:34:00,
2013-06-23 19:36:00,66.8,65.0,29.97,South,177,0.0,0.0,94,0.04,,OVC070,0.31,VWS V14.01,2013-06-24 00:36:00,
2013-06-23 19:37:00,66.8,65.0,29.97,South,177,0.0,0.0,94,0.04,,OVC070,0.31,VWS V14.01,2013-06-24 00:37:00,
2013-06-23 19:39:00,66.8,65.0,29.97,South,179,0.0,0.0,94,0.04,,OVC070,0.31,VWS V14.01,2013-06-24 00:39:00,
2013-06-23 19:40:00,66.8,65.0,29.97,South,180,0.0,0.0,94,0.04,,OVC070,0.31,VWS V14.01,2013-06-24 00:40:00,
2013-06-23 19:41:00,66.8,65.0,29.97,South,180,0.0,0.0,94,0.04,,OVC070,0.31,VWS V14.01,2013-06-24 00:41:00,
2013-06-23 19:42:00,66.8,65.0,29.97,SSW,196,0.0,1.0,94,0.04,,OVC070,0.31,VWS V14.01,2013-06-24 00:42:00,
2013-06-23 19:44:00,66.8,65.0,29.97,SSW,196,0.0,1.0,94,0.04,,OVC070,0.31,VWS V14.01,2013-06-24 00:44:00,
2013-06-23 19:45:00,66.8,65.0,29.97,SSW,196,0.0,1.0,94,0.04,,OVC060,0.31,VWS V14.01,2013-06-24 00:45:00,
2013-06-23 19:46:00,66.8,65.0,29.97,SSW,196,0.0,1.0,94,0.04,,OVC060,0.31,VWS V14.01,2013-06-24 00:46:00,
2013-06-23 19:47:00,66.8,65.0,29.97,SSW,194,0.0,1.0,94,0.04,,OVC060,0.31,VWS V14.01,2013-06-24 00:47:00,
2013-06-23 19:49:00,66.8,65.0,29.97,SSW,199,0.0,1.0,94,0.04,,OVC060,0.31,VWS V14.01,2013-06-24 00:49:00,
2013-06-23 19:50:00,66.8,65.0,29.97,SSW,194,0.0,1.0,94,0.04,,OVC060,0.31,VWS V14.01,2013-06-24 00:50:00,
2013-06-23 19:51:00,66.8,65.0,29.97,SSW,194,0.0,1.0,94,0.04,,OVC060,0.31,VWS V14.01,2013-06-24 00:51:00,
2013-06-23 19:52:00,66.8,65.0,29.97,SSW,194,0.0,1.0,94,0.04,,OVC060,0.31,VWS V14.01,2013-06-24 00:52:00,
2013-06-23 19:53:00,67.0,65.2,29.97,SSW,194,0.0,1.0,94,0.05,,OVC060,0.32,VWS V14.01,2013-06-24 00:53:00,
2013-06-23 19:54:00,67.0,65.2,29.97,ESE,111,0.0,1.0,94,0.05,,OVC060,0.32,VWS V14.01,2013-06-24 00:54:00,
2013-06-23 19:56:00,67.0,65.2,29.97,SSW,193,0.0,1.0,94,0.05,,OVC060,0.32,VWS V14.01,2013-06-24 00:56:00,
2013-06-23 19:57:00,67.0,65.2,29.97,SSW,194,0.0,1.0,94,0.05,,OVC060,0.32,VWS V14.01,2013-06-24 00:57:00,
2013-06-23 19:58:00,67.0,65.2,29.97,SSW,194,0.0,1.0,94,0.05,,OVC060,0.32,VWS V14.01,2013-06-24 00:58:00,
2013-06-23 19:59:00,67.0,65.2,29.97,SE,135,0.0,1.0,94,0.06,,OVC060,0.33,VWS V14.01,2013-06-24 00:59:00,
2013-06-23 20:00:00,67.0,65.2,29.97,South,187,0.0,1.0,94,0.06,,,0.33,VWS V14.01,2013-06-24 01:00:00,
2013-06-23 20:01:00,67.0,65.2,29.97,South,187,0.0,0.0,94,0.04,,OVC060,0.33,VWS V14.01,2013-06-24 01:01:00,
2013-06-23 20:02:00,67.0,65.2,29.97,SSE,161,0.0,0.0,94,0.04,,-RA,0.33,VWS V14.01,2013-06-24 01:02:00,
2013-06-23 20:03:00,67.0,65.2,29.97,South,171,0.0,0.0,94,0.05,,-RA,0.34,VWS V14.01,2013-06-24 01:03:00,
2013-06-23 20:05:00,67.0,65.2,29.97,SSE,158,0.0,1.0,94,0.05,,-RA,0.34,VWS V14.01,2013-06-24 01:05:00,
2013-06-23 20:06:00,67.0,65.2,29.97,SSE,158,0.0,1.0,94,0.05,,-RA,0.34,VWS V14.01,2013-06-24 01:06:00,
2013-06-23 20:07:00,67.0,65.2,29.97,SSE,158,0.0,1.0,94,0.05,,-RA,0.34,VWS V14.01,2013-06-24 01:07:00,
2013-06-23 20:08:00,67.0,65.2,29.97,SSE,158,0.0,1.0,94,0.05,,-RA,0.34,VWS V14.01,2013-06-24 01:08:00,
2013-06-23 20:10:00,67.0,65.2,29.97,SSE,161,0.0,1.0,94,0.05,,-RA,0.34,VWS V14.01,2013-06-24 01:10:00,
2013-06-23 20:11:00,67.0,65.2,29.97,South,179,0.0,1.0,94,0.05,,-RA,0.34,VWS V14.01,2013-06-24 01:11:00,
2013-06-23 20:12:00,67.0,65.2,29.97,South,178,0.0,1.0,94,0.06,,-RA,0.35,VWS V14.01,2013-06-24 01:12:00,
2013-06-23 20:13:00,67.0,65.2,29.97,South,190,0.0,2.0,94,0.06,,-RA,0.35,VWS V14.01,2013-06-24 01:13:00,
2013-06-23 20:15:00,67.0,65.2,29.96,ESE,115,0.0,2.0,94,0.06,,-RA,0.35,VWS V14.01,2013-06-24 01:15:00,
2013-06-23 20:16:00,67.0,65.2,29.96,South,190,0.0,2.0,94,0.06,,-RA,0.35,VWS V14.01,2013-06-24 01:16:00,
2013-06-23 20:17:00,67.0,65.2,29.96,South,190,0.0,2.0,94,0.07,,-RA,0.36,VWS V14.01,2013-06-24 01:17:00,
2013-06-23 20:18:00,67.0,65.2,29.96,South,174,0.0,2.0,94,0.07,,-RA,0.36,VWS V14.01,2013-06-24 01:18:00,
2013-06-23 20:20:00,67.0,65.2,29.96,SE,127,0.0,2.0,94,0.07,,-RA,0.36,VWS V14.01,2013-06-24 01:20:00,
2013-06-23 20:21:00,67.0,65.2,29.96,SSW,207,1.0,2.0,94,0.08,,-RA,0.37,VWS V14.01,2013-06-24 01:21:00,
2013-06-23 20:22:00,67.0,65.2,29.96,SSE,159,0.0,2.0,94,0.08,,-RA,0.37,VWS V14.01,2013-06-24 01:22:00,
2013-06-23 20:23:00,67.0,65.2,29.96,SSE,155,0.0,2.0,94,0.08,,-RA,0.37,VWS V14.01,2013-06-24 01:23:00,
2013-06-23 20:25:00,67.0,65.2,29.96,South,188,0.0,2.0,94,0.09,,-RA,0.38,VWS V14.01,2013-06-24 01:25:00,
2013-06-23 20:26:00,67.0,65.2,29.96,SSW,202,2.0,2.0,94,0.09,,-RA,0.38,VWS V14.01,2013-06-24 01:26:00,
2013-06-23 20:27:00,67.0,65.5,29.96,SSW,203,0.0,2.0,95,0.09,,-RA,0.38,VWS V14.01,2013-06-24 01:27:00,
2013-06-23 20:28:00,67.0,65.5,29.96,South,176,0.0,2.0,95,0.09,,-RA,0.38,VWS V14.01,2013-06-24 01:28:00,
2013-06-23 20:30:00,67.0,65.5,29.96,South,178,0.0,3.0,95,0.10,,-RA,0.39,VWS V14.01,2013-06-24 01:30:00,
2013-06-23 20:31:00,67.0,65.5,29.96,SSW,192,0.0,2.0,95,0.09,,OVC055,0.39,VWS V14.01,2013-06-24 01:31:00,
2013-06-23 20:32:00,67.0,65.5,29.96,SSW,198,0.0,2.0,95,0.10,,OVC055,0.40,VWS V14.01,2013-06-24 01:32:00,
2013-06-23 20:33:00,67.2,65.7,29.96,SE,139,0.0,2.0,95,0.10,,OVC055,0.40,VWS V14.01,2013-06-24 01:33:00,
2013-06-23 20:34:00,67.0,65.5,29.96,SSW,200,0.0,2.0,95,0.10,,OVC055,0.40,VWS V14.01,2013-06-24 01:34:00,
2013-06-23 20:36:00,67.0,65.5,29.96,SSW,195,0.0,2.0,95,0.10,,OVC055,0.40,VWS V14.01,2013-06-24 01:36:00,
2013-06-23 20:37:00,67.0,65.5,29.96,South,188,0.0,2.0,95,0.11,,OVC055,0.41,VWS V14.01,2013-06-24 01:37:00,
2013-06-23 20:38:00,67.0,65.5,29.96,South,180,0.0,2.0,95,0.11,,OVC055,0.41,VWS V14.01,2013-06-24 01:38:00,
2013-06-23 20:39:00,67.0,65.5,29.96,SW,236,0.0,2.0,95,0.11,,OVC055,0.41,VWS V14.01,2013-06-24 01:39:00,
2013-06-23 20:41:00,67.0,65.5,29.96,SSW,199,3.0,3.0,95,0.12,,OVC055,0.42,VWS V14.01,2013-06-24 01:41:00,
2013-06-23 20:42:00,67.0,65.5,29.96,SSW,202,0.0,3.0,95,0.12,,OVC055,0.42,VWS V14.01,2013-06-24 01:42:00,
2013-06-23 20:43:00,67.0,65.5,29.96,SSW,202,0.0,3.0,95,0.12,,OVC055,0.42,VWS V14.01,2013-06-24 01:43:00,
2013-06-23 20:44:00,67.0,65.5,29.96,South,173,0.0,3.0,95,0.13,,OVC055,0.43,VWS V14.01,2013-06-24 01:44:00,
2013-06-23 20:46:00,67.0,65.5,29.96,South,175,0.0,3.0,95,0.13,,OVC050,0.43,VWS V14.01,2013-06-24 01:46:00,
2013-06-23 20:47:00,67.0,65.5,29.96,South,175,0.0,3.0,95,0.13,,OVC050,0.43,VWS V14.01,2013-06-24 01:47:00,
2013-06-23 20:48:00,67.0,65.5,29.96,South,184,0.0,3.0,95,0.13,,OVC050,0.43,VWS V14.01,2013-06-24 01:48:00,
2013-06-23 20:49:00,67.0,65.5,29.96,South,178,0.0,3.0,95,0.14,,OVC050,0.44,VWS V14.01,2013-06-24 01:49:00,
2013-06-23 20:51:00,67.0,65.5,29.96,SSW,200,0.0,3.0,95,0.14,,OVC050,0.44,VWS V14.01,2013-06-24 01:51:00,
2013-06-23 20:52:00,67.0,65.5,29.96,SSW,196,0.0,3.0,95,0.14,,OVC050,0.44,VWS V14.01,2013-06-24 01:52:00,
2013-06-23 20:53:00,67.0,65.5,29.96,South,186,0.0,3.0,95,0.15,,OVC050,0.45,VWS V14.01,2013-06-24 01:53:00,
2013-06-23 20:55:00,67.0,65.5,29.96,South,186,0.0,3.0,95,0.15,,OVC050,0.45,VWS V14.01,2013-06-24 01:55:00,
2013-06-23 20:56:00,67.0,65.5,29.96,South,186,0.0,3.0,95,0.15,,OVC050,0.45,VWS V14.01,2013-06-24 01:56:00,
2013-06-23 20:57:00,67.0,65.5,29.96,South,181,0.0,3.0,95,0.16,,OVC050,0.46,VWS V14.01,2013-06-24 01:57:00,
2013-06-23 20:58:00,67.0,65.5,29.96,South,181,0.0,3.0,95,0.16,,OVC050,0.46,VWS V14.01,2013-06-24 01:58:00,
2013-06-23 20:59:00,67.0,65.5,29.96,South,181,0.0,3.0,95,0.16,,OVC050,0.46,VWS V14.01,2013-06-24 01:59:00,
2013-06-23 21:00:00,67.0,65.5,29.96,South,181,0.0,3.0,95,0.16,,OVC050,0.46,VWS V14.01,2013-06-24 02:00:00,
2013-06-23 21:01:00,67.0,65.5,29.96,ESE,117,0.0,0.0,95,0.14,,OVC048,0.47,VWS V14.01,2013-06-24 02:01:00,
2013-06-23 21:03:00,67.0,65.5,29.96,South,180,0.0,0.0,95,0.14,,OVC048,0.47,VWS V14.01,2013-06-24 02:03:00,
2013-06-23 21:04:00,67.0,65.5,29.96,South,180,0.0,0.0,95,0.15,,OVC048,0.48,VWS V14.01,2013-06-24 02:04:00,
2013-06-23 21:05:00,67.0,65.5,29.96,South,181,0.0,0.0,95,0.15,,OVC048,0.48,VWS V14.01,2013-06-24 02:05:00,
2013-06-23 21:06:00,67.0,65.5,29.96,South,181,0.0,0.0,95,0.15,,OVC048,0.48,VWS V14.01,2013-06-24 02:06:00,
2013-06-23 21:08:00,67.0,65.5,29.96,South,181,0.0,0.0,95,0.16,,OVC048,0.49,VWS V14.01,2013-06-24 02:08:00,
2013-06-23 21:09:00,67.0,65.5,29.96,South,181,0.0,0.0,95,0.16,,OVC048,0.49,VWS V14.01,2013-06-24 02:09:00,
2013-06-23 21:10:00,67.0,65.5,29.96,SSW,198,0.0,2.0,95,0.16,,OVC048,0.49,VWS V14.01,2013-06-24 02:10:00,
2013-06-23 21:11:00,66.8,65.3,29.96,SSW,198,0.0,2.0,95,0.16,,OVC048,0.49,VWS V14.01,2013-06-24 02:11:00,
2013-06-23 21:13:00,66.8,65.3,29.96,South,188,0.0,3.0,95,0.17,,OVC048,0.50,VWS V14.01,2013-06-24 02:13:00,
2013-06-23 21:14:00,66.8,65.3,29.96,South,188,0.0,3.0,95,0.17,,OVC048,0.50,VWS V14.01,2013-06-24 02:14:00,
2013-06-23 21:15:00,66.8,65.3,29.98,South,188,0.0,3.0,95,0.17,,OVC048,0.50,VWS V14.01,2013-06-24 02:15:00,
2013-06-23 21:16:00,66.8,65.3,29.98,South,188,0.0,3.0,95,0.18,,OVC048,0.51,VWS V14.01,2013-06-24 02:16:00,
2013-06-23 21:18:00,66.8,65.3,29.98,South,186,0.0,3.0,95,0.18,,OVC048,0.51,VWS V14.01,2013-06-24 02:18:00,
2013-06-23 21:19:00,66.8,65.3,29.98,South,186,0.0,3.0,95,0.18,,OVC048,0.51,VWS V14.01,2013-06-24 02:19:00,
2013-06-23 21:20:00,66.8,65.3,29.98,South,188,0.0,3.0,95,0.18,,OVC048,0.51,VWS V14.01,2013-06-24 02:20:00,
2013-06-23 21:21:00,66.8,65.3,29.98,South,188,0.0,3.0,95,0.19,,OVC048,0.52,VWS V14.01,2013-06-24 02:21:00,
2013-06-23 21:23:00,66.7,65.2,29.98,South,188,0.0,3.0,95,0.19,,OVC048,0.52,VWS V14.01,2013-06-24 02:23:00,
2013-06-23 21:24:00,66.7,65.2,29.98,South,188,0.0,3.0,95,0.19,,OVC048,0.52,VWS V14.01,2013-06-24 02:24:00,
2013-06-23 21:25:00,66.7,65.2,29.98,South,188,0.0,3.0,95,0.20,,OVC048,0.53,VWS V14.01,2013-06-24 02:25:00,
2013-06-23 21:26:00,66.7,65.2,29.98,South,185,0.0,3.0,95,0.20,,OVC048,0.53,VWS V14.01,2013-06-24 02:26:00,
2013-06-23 21:28:00,66.7,65.2,29.98,South,185,0.0,3.0,95,0.20,,OVC048,0.53,VWS V14.01,2013-06-24 02:28:00,
2013-06-23 21:29:00,66.7,65.2,29.98,South,169,0.0,3.0,95,0.20,,OVC048,0.53,VWS V14.01,2013-06-24 02:29:00,
2013-06-23 21:30:00,66.7,65.2,29.98,South,169,0.0,3.0,95,0.20,,OVC048,0.53,VWS V14.01,2013-06-24 02:30:00,
2013-06-23 21:31:00,66.7,65.2,29.98,South,169,0.0,0.0,95,0.15,,OVC048,0.54,VWS V14.01,2013-06-24 02:31:00,
2013-06-23 21:33:00,66.7,65.2,29.98,South,169,0.0,0.0,95,0.15,,OVC048,0.54,VWS V14.01,2013-06-24 02:33:00,
2013-06-23 21:34:00,66.7,65.2,29.98,South,169,0.0,0.0,95,0.15,,OVC048,0.54,VWS V14.01,2013-06-24 02:34:00,
2013-06-23 21:35:00,66.7,65.2,29.98,South,169,0.0,0.0,95,0.15,,OVC048,0.54,VWS V14.01,2013-06-24 02:35:00,
2013-06-23 21:36:00,66.7,65.2,29.98,South,169,0.0,0.0,95,0.15,,OVC048,0.54,VWS V14.01,2013-06-24 02:36:00,
2013-06-23 21:37:00,66.7,65.2,29.98,South,169,0.0,0.0,95,0.15,,OVC048,0.54,VWS V14.01,2013-06-24 02:37:00,
2013-06-23 21:38:00,66.7,65.2,29.98,South,169,0.0,0.0,95,0.15,,OVC048,0.54,VWS V14.01,2013-06-24 02:38:00,
2013-06-23 21:39:00,66.7,65.2,29.98,South,169,0.0,0.0,95,0.16,,OVC048,0.55,VWS V14.01,2013-06-24 02:39:00,
2013-06-23 21:40:00,66.7,65.2,29.98,South,169,0.0,0.0,95,0.16,,OVC048,0.55,VWS V14.01,2013-06-24 02:40:00,
2013-06-23 21:41:00,66.7,65.2,29.98,South,169,0.0,0.0,95,0.16,,OVC048,0.55,VWS V14.01,2013-06-24 02:41:00,
2013-06-23 21:42:00,66.7,65.2,29.98,South,169,0.0,0.0,95,0.16,,OVC048,0.55,VWS V14.01,2013-06-24 02:42:00,
2013-06-23 21:43:00,66.7,65.2,29.98,South,169,0.0,0.0,95,0.16,,OVC048,0.55,VWS V14.01,2013-06-24 02:43:00,
2013-06-23 21:44:00,66.7,65.2,29.98,South,169,0.0,0.0,95,0.16,,OVC048,0.55,VWS V14.01,2013-06-24 02:44:00,
2013-06-23 21:45:00,66.7,65.2,29.97,South,169,0.0,0.0,95,0.16,,OVC048,0.55,VWS V14.01,2013-06-24 02:45:00,
2013-06-23 21:46:00,66.7,65.2,29.97,South,169,0.0,0.0,95,0.16,,-RA,0.55,VWS V14.01,2013-06-24 02:46:00,
2013-06-23 21:48:00,66.7,65.2,29.97,South,171,0.0,0.0,95,0.16,,-RA,0.55,VWS V14.01,2013-06-24 02:48:00,
2013-06-23 21:49:00,66.7,65.2,29.97,South,171,0.0,0.0,95,0.16,,-RA,0.55,VWS V14.01,2013-06-24 02:49:00,
2013-06-23 21:50:00,66.7,65.2,29.97,South,187,0.0,3.0,95,0.17,,-RA,0.56,VWS V14.01,2013-06-24 02:50:00,
2013-06-23 21:51:00,66.7,65.2,29.97,South,171,2.0,4.0,95,0.17,,-RA,0.56,VWS V14.01,2013-06-24 02:51:00,
2013-06-23 21:53:00,66.7,65.2,29.97,South,188,0.0,4.0,95,0.17,,-RA,0.56,VWS V14.01,2013-06-24 02:53:00,
2013-06-23 21:54:00,66.7,65.2,29.97,South,181,0.0,4.0,95,0.17,,-RA,0.56,VWS V14.01,2013-06-24 02:54:00,
2013-06-23 21:55:00,66.7,65.2,29.97,South,183,0.0,4.0,95,0.18,,-RA,0.57,VWS V14.01,2013-06-24 02:55:00,
2013-06-23 21:56:00,66.7,65.2,29.97,South,188,2.0,4.0,95,0.18,,-RA,0.57,VWS V14.01,2013-06-24 02:56:00,
2013-06-23 21:58:00,66.7,65.2,29.97,South,188,0.0,4.0,95,0.18,,-RA,0.57,VWS V14.01,2013-06-24 02:58:00,
2013-06-23 21:59:00,66.5,65.0,29.97,SSW,213,6.0,10.0,95,0.18,,-RA,0.57,VWS V14.01,2013-06-24 02:59:00,
2013-06-23 22:00:00,66.5,65.0,29.94,South,184,0.0,10.0,95,0.18,,-RA,0.57,VWS V14.01,2013-06-24 03:00:00,
2013-06-23 22:01:00,66.5,65.0,29.94,SSW,200,4.0,6.0,95,0.10,,OVC110,0.57,VWS V14.01,2013-06-24 03:01:00,
2013-06-23 22:03:00,66.5,65.0,29.94,SSW,209,4.0,6.0,95,0.10,,OVC110,0.57,VWS V14.01,2013-06-24 03:03:00,
2013-06-23 22:04:00,66.3,64.8,29.94,SSW,198,2.0,6.0,95,0.11,,OVC110,0.58,VWS V14.01,2013-06-24 03:04:00,
2013-06-23 22:05:00,66.3,64.8,29.94,SSW,195,0.0,6.0,95,0.11,,OVC110,0.58,VWS V14.01,2013-06-24 03:05:00,
2013-06-23 22:06:00,66.3,64.8,29.94,SSW,203,9.0,9.0,95,0.11,,OVC110,0.58,VWS V14.01,2013-06-24 03:06:00,
2013-06-23 22:07:00,66.3,64.8,29.94,SW,223,3.0,9.0,95,0.11,,OVC110,0.58,VWS V14.01,2013-06-24 03:07:00,
2013-06-23 22:08:00,66.3,64.8,29.94,SSE,168,5.0,9.0,95,0.11,,OVC110,0.58,VWS V14.01,2013-06-24 03:08:00,
2013-06-23 22:09:00,66.3,64.8,29.94,South,176,3.0,10.0,95,0.11,,OVC110,0.58,VWS V14.01,2013-06-24 03:09:00,
2013-06-23 22:10:00,66.3,64.8,29.94,SSW,201,3.0,10.0,95,0.11,,OVC110,0.58,VWS V14.01,2013-06-24 03:10:00,
2013-06-23 22:11:00,66.3,64.8,29.94,SSW,194,6.0,10.0,95,0.11,,OVC110,0.58,VWS V14.01,2013-06-24 03:11:00,
2013-06-23 22:12:00,66.3,64.8,29.94,South,183,1.0,10.0,95,0.11,,OVC110,0.58,VWS V14.01,2013-06-24 03:12:00,
2013-06-23 22:13:00,66.3,64.8,29.94,South,180,0.0,10.0,95,0.11,,OVC110,0.58,VWS V14.01,2013-06-24 03:13:00,
2013-06-23 22:14:00,66.3,64.8,29.94,SSW,194,4.0,10.0,95,0.12,,OVC110,0.59,VWS V14.01,2013-06-24 03:14:00,
2013-06-23 22:15:00,66.3,64.8,29.89,SSW,194,4.0,12.0,95,0.12,,OVC110,0.59,VWS V14.01,2013-06-24 03:15:00,
2013-06-23 22:16:00,66.3,64.8,29.89,SSE,150,3.0,12.0,95,0.12,,OVC110,0.59,VWS V14.01,2013-06-24 03:16:00,
2013-06-23 22:17:00,66.3,64.8,29.89,South,188,1.0,13.0,95,0.12,,OVC110,0.59,VWS V14.01,2013-06-24 03:17:00,
2013-06-23 22:18:00,66.3,64.8,29.89,SSW,198,2.0,13.0,95,0.12,,OVC110,0.59,VWS V14.01,2013-06-24 03:18:00,
2013-06-23 22:19:00,66.3,64.8,29.89,South,172,3.0,13.0,95,0.12,,OVC110,0.59,VWS V14.01,2013-06-24 03:19:00,
2013-06-23 22:20:00,66.3,64.8,29.89,SSW,199,0.0,13.0,95,0.12,,OVC110,0.59,VWS V14.01,2013-06-24 03:20:00,
2013-06-23 22:21:00,66.3,64.8,29.89,SSW,194,0.0,13.0,95,0.12,,OVC110,0.59,VWS V14.01,2013-06-24 03:21:00,
2013-06-23 22:22:00,66.3,64.8,29.89,SSE,160,1.0,13.0,95,0.12,,OVC110,0.59,VWS V14.01,2013-06-24 03:22:00,
2013-06-23 22:23:00,66.3,64.8,29.89,SSW,208,0.0,13.0,95,0.12,,OVC110,0.59,VWS V14.01,2013-06-24 03:23:00,
2013-06-23 22:24:00,66.5,65.0,29.89,ENE,57,0.0,13.0,95,0.12,,OVC110,0.59,VWS V14.01,2013-06-24 03:24:00,
2013-06-23 22:25:00,66.5,65.0,29.89,SSW,202,0.0,13.0,95,0.12,,OVC110,0.59,VWS V14.01,2013-06-24 03:25:00,
2013-06-23 22:27:00,66.5,65.0,29.89,SSW,202,0.0,13.0,95,0.12,,OVC110,0.59,VWS V14.01,2013-06-24 03:27:00,
2013-06-23 22:28:00,66.5,65.0,29.89,SSW,207,0.0,13.0,95,0.12,,OVC110,0.59,VWS V14.01,2013-06-24 03:28:00,
2013-06-23 22:30:00,66.5,65.0,29.92,SSW,207,0.0,13.0,95,0.12,,OVC110,0.59,VWS V14.01,2013-06-24 03:30:00,
2013-06-23 22:31:00,66.5,65.0,29.92,SSW,207,0.0,0.0,95,0.06,,OVC110,0.59,VWS V14.01,2013-06-24 03:31:00,
2013-06-23 22:32:00,66.5,65.0,29.92,SSW,206,0.0,0.0,95,0.06,,OVC110,0.59,VWS V14.01,2013-06-24 03:32:00,
2013-06-23 22:33:00,66.5,65.0,29.92,SSW,206,0.0,0.0,95,0.06,,OVC110,0.59,VWS V14.01,2013-06-24 03:33:00,
2013-06-23 22:35:00,66.5,65.0,29.92,SSW,206,0.0,0.0,95,0.06,,OVC110,0.59,VWS V14.01,2013-06-24 03:35:00,
2013-06-23 22:36:00,66.5,65.0,29.92,SSW,206,0.0,0.0,95,0.06,,OVC110,0.59,VWS V14.01,2013-06-24 03:36:00,
2013-06-23 22:37:00,66.5,65.0,29.92,SSW,206,0.0,0.0,95,0.06,,OVC110,0.59,VWS V14.01,2013-06-24 03:37:00,
2013-06-23 22:38:00,66.5,65.0,29.92,SSW,206,0.0,0.0,95,0.06,,OVC110,0.59,VWS V14.01,2013-06-24 03:38:00,
2013-06-23 22:40:00,66.5,65.0,29.92,SSW,206,0.0,0.0,95,0.06,,OVC110,0.59,VWS V14.01,2013-06-24 03:40:00,
2013-06-23 22:41:00,66.5,65.0,29.92,SSW,206,0.0,0.0,95,0.06,,OVC110,0.59,VWS V14.01,2013-06-24 03:41:00,
2013-06-23 22:42:00,66.5,65.0,29.92,SSW,206,0.0,0.0,95,0.06,,OVC110,0.59,VWS V14.01,2013-06-24 03:42:00,
2013-06-23 22:43:00,66.5,65.0,29.92,SSW,206,0.0,0.0,95,0.06,,OVC110,0.59,VWS V14.01,2013-06-24 03:43:00,
2013-06-23 22:45:00,66.7,65.2,29.96,SSW,209,0.0,0.0,95,0.06,,OVC110,0.59,VWS V14.01,2013-06-24 03:45:00,
2013-06-23 22:46:00,66.7,65.2,29.96,SSW,208,0.0,0.0,95,0.06,,-RA,0.59,VWS V14.01,2013-06-24 03:46:00,
2013-06-23 22:47:00,66.7,65.2,29.96,SSW,208,0.0,0.0,95,0.06,,-RA,0.59,VWS V14.01,2013-06-24 03:47:00,
2013-06-23 22:48:00,66.7,65.2,29.96,SSW,210,0.0,0.0,95,0.06,,-RA,0.59,VWS V14.01,2013-06-24 03:48:00,
2013-06-23 22:49:00,66.7,65.2,29.96,SSW,202,0.0,0.0,95,0.06,,-RA,0.59,VWS V14.01,2013-06-24 03:49:00,
2013-06-23 22:50:00,66.7,65.2,29.96,SSW,202,0.0,0.0,95,0.06,,-RA,0.59,VWS V14.01,2013-06-24 03:50:00,
2013-06-23 22:51:00,66.7,65.2,29.96,SSW,202,0.0,0.0,95,0.06,,-RA,0.59,VWS V14.01,2013-06-24 03:51:00,
2013-06-23 22:52:00,66.7,65.2,29.96,SSW,202,0.0,0.0,95,0.06,,-RA,0.59,VWS V14.01,2013-06-24 03:52:00,
2013-06-23 22:53:00,66.7,65.2,29.96,SSW,202,0.0,0.0,95,0.06,,-RA,0.59,VWS V14.01,2013-06-24 03:53:00,
2013-06-23 22:54:00,66.7,65.2,29.96,SSW,202,0.0,0.0,95,0.06,,-RA,0.59,VWS V14.01,2013-06-24 03:54:00,
2013-06-23 22:55:00,66.7,65.2,29.96,SSW,202,0.0,0.0,95,0.06,,-RA,0.59,VWS V14.01,2013-06-24 03:55:00,
2013-06-23 22:56:00,66.7,65.2,29.96,SSW,202,0.0,0.0,95,0.06,,-RA,0.59,VWS V14.01,2013-06-24 03:56:00,
2013-06-23 22:57:00,66.7,65.2,29.96,SSW,202,0.0,0.0,95,0.06,,-RA,0.59,VWS V14.01,2013-06-24 03:57:00,
2013-06-23 22:58:00,66.7,65.2,29.96,SSW,202,0.0,0.0,95,0.06,,-RA,0.59,VWS V14.01,2013-06-24 03:58:00,
2013-06-23 22:59:00,66.7,65.2,29.96,SSW,202,0.0,0.0,95,0.06,,-RA,0.59,VWS V14.01,2013-06-24 03:59:00,
2013-06-23 23:00:00,66.7,65.2,29.95,SSW,202,0.0,0.0,95,0.06,,-RA,0.59,VWS V14.01,2013-06-24 04:00:00,
2013-06-23 23:01:00,66.7,65.2,29.95,SSW,202,0.0,0.0,95,0.06,,-RA,0.59,VWS V14.01,2013-06-24 04:01:00,
2013-06-23 23:06:00,66.7,65.2,29.95,SSW,202,0.0,0.0,95,0.02,,SCT085,0.59,VWS V14.01,2013-06-24 04:06:00,
2013-06-23 23:11:00,66.8,65.3,29.95,SSW,201,0.0,0.0,95,0.02,,SCT085,0.59,VWS V14.01,2013-06-24 04:11:00,
2013-06-23 23:16:00,66.8,65.3,29.96,SSW,201,0.0,0.0,95,0.02,,SCT085,0.59,VWS V14.01,2013-06-24 04:16:00,
2013-06-23 23:17:00,66.8,65.3,29.96,SSW,201,0.0,0.0,95,0.02,,SCT085,0.59,VWS V14.01,2013-06-24 04:17:00,
2013-06-23 23:21:00,66.7,65.2,29.96,SSW,201,0.0,0.0,95,0.02,,SCT085,0.59,VWS V14.01,2013-06-24 04:21:00,
2013-06-23 23:22:00,66.7,65.2,29.96,SSW,200,0.0,0.0,95,0.02,,SCT085,0.59,VWS V14.01,2013-06-24 04:22:00,
2013-06-23 23:26:00,66.7,65.2,29.96,South,190,0.0,0.0,95,0.02,,SCT085,0.59,VWS V14.01,2013-06-24 04:26:00,
2013-06-23 23:27:00,66.7,65.2,29.96,South,190,0.0,0.0,95,0.02,,SCT085,0.59,VWS V14.01,2013-06-24 04:27:00,
2013-06-23 23:30:00,66.7,65.2,29.97,South,169,0.0,0.0,95,0.02,,,0.59,VWS V14.01,2013-06-24 04:30:00,
2013-06-23 23:31:00,66.7,65.2,29.97,SE,130,0.0,0.0,95,0.00,,SCT085,0.59,VWS V14.01,2013-06-24 04:31:00,
2013-06-23 23:32:00,66.7,65.2,29.97,ESE,119,0.0,0.0,95,0.00,,SCT085,0.59,VWS V14.01,2013-06-24 04:32:00,
2013-06-23 23:36:00,66.8,65.3,29.97,ESE,121,0.0,0.0,95,0.00,,SCT085,0.59,VWS V14.01,2013-06-24 04:36:00,
2013-06-23 23:37:00,66.8,65.3,29.97,ESE,121,0.0,0.0,95,0.00,,SCT085,0.59,VWS V14.01,2013-06-24 04:37:00,
2013-06-23 23:41:00,66.8,65.3,29.97,South,171,0.0,0.0,95,0.00,,SCT085,0.59,VWS V14.01,2013-06-24 04:41:00,
2013-06-23 23:42:00,66.8,65.3,29.97,South,171,0.0,0.0,95,0.00,,SCT085,0.59,VWS V14.01,2013-06-24 04:42:00,
2013-06-23 23:47:00,66.8,65.3,29.97,South,169,0.0,0.0,95,0.00,,CLR,0.59,VWS V14.01,2013-06-24 04:47:00,
2013-06-23 23:52:00,67.0,65.5,29.97,SSE,155,0.0,0.0,95,0.00,,CLR,0.59,VWS V14.01,2013-06-24 04:52:00,
2013-06-23 23:57:00,66.8,65.3,29.97,SSE,155,0.0,0.0,95,0.00,,CLR,0.59,VWS V14.01,2013-06-24 04:57:00,
2013-06-23 23:58:00,66.8,65.3,29.97,SSE,155,0.0,0.0,95,0.00,,CLR,0.59,VWS V14.01,2013-06-24 04:58:00,